CW1648 Weather Reports


time (UTC)temp
C
wind
direction
speed
KPH
gust
KPH
rain 1hr
cm
rain 24hr
cm
rain mn
cm
humidity
%
barometer
mb
20260905175316 27 266 0.0 0.0 0.00 0.00 0.00 53 1008.1
20260905175259 27 266 0.0 0.0 0.00 0.00 0.00 52 1008.2
20260905175216 27 266 0.0 0.0 0.00 0.00 0.00 50 1008.1
20260905175116 27 266 0.0 0.0 0.00 0.00 0.00 50 1008.2
20260905175034 27 259 0.0 0.0 0.00 0.00 0.00 50 1008.2
20260905175030 27 348 0.0 0.0 0.00 0.00 0.00 51 1008.3
20260905175024 27 265 0.0 0.0 0.00 0.00 0.00 50 1008.3
20260905174905 27 259 0.0 0.0 0.00 0.00 0.00 52 1008.2
20260905174714 27 262 0.0 0.0 0.00 0.00 0.00 50 1008.2
20260905174614 27 284 0.0 0.0 0.00 0.00 0.00 50 1008.2
20260905174544 27 311 0.0 0.0 0.00 0.00 0.00 51 1008.2
20260905174513 27 336 0.0 0.0 0.00 0.00 0.00 51 1008.3
20260905174413 27 285 0.0 0.0 0.00 0.00 0.00 50 1008.3
20260905174313 27 286 0.0 0.0 0.00 0.00 0.00 51 1008.3
20260905174256 27 286 0.0 0.0 0.00 0.00 0.00 51 1008.3
20260905174211 27 288 0.0 0.0 0.00 0.00 0.00 51 1008.3
20260905174111 27 280 0.0 0.0 0.00 0.00 0.00 49 1008.3
20260905174029 27 319 0.0 0.0 0.00 0.00 0.00 51 1008.2
20260905174011 27 282 0.0 0.0 0.00 0.00 0.00 51 1008.3
20260905173910 27 267 0.0 0.0 0.00 0.00 0.00 49 1008.2
20260905173810 27 261 0.0 0.0 0.00 0.00 0.00 51 1008.1
20260905173756 27 336 0.0 0.0 0.00 0.00 0.00 51 1008.2
20260905173708 27 340 0.0 0.0 0.00 0.00 0.00 52 1008.2
20260905173626 27 238 0.0 0.0 0.00 0.00 0.00 52 1008.2
20260905173529 27 240 0.0 0.0 0.00 0.00 0.00 51 1008.3
20260905173507 27 240 0.0 0.0 0.00 0.00 0.00 51 1008.2
20260905173409 27 239 0.0 0.0 0.00 0.00 0.00 51 1008.3
20260905173400 27 236 0.0 0.0 0.00 0.00 0.00 51 1008.3
20260905173221 27 284 0.0 0.0 0.00 0.00 0.00 52 1008.3
20260905173216 27 237 0.0 0.0 0.00 0.00 0.00 52 1008.4
20260905173044 27 286 0.0 0.0 0.00 0.00 0.00 53 1008.3
20260905173006 27 288 0.0 0.0 0.00 0.00 0.00 51 1008.3
20260905172906 27 252 0.0 0.0 0.00 0.00 0.00 54 1008.3
20260905172805 27 269 0.0 0.0 0.00 0.00 0.00 54 1008.4
20260905172753 27 269 0.0 0.0 0.00 0.00 0.00 54 1008.4
20260905172705 27 284 0.0 0.0 0.00 0.00 0.00 52 1008.4
20260905172626 27 283 0.0 0.0 0.00 0.00 0.00 51 1008.4
20260905172530 27 261 0.0 0.0 0.00 0.00 0.00 54 1008.3
20260905172513 27 289 0.0 0.0 0.00 0.00 0.00 54 1008.3
20260905172305 27 275 0.0 0.0 0.00 0.00 0.00 51 1008.3
20260905172252 27 275 0.0 0.0 0.00 0.00 0.00 51 1008.3
20260905172203 27 316 0.0 0.0 0.00 0.00 0.00 51 1008.3
20260905172101 27 290 0.0 0.0 0.00 0.00 0.00 52 1008.3
20260905172029 27 268 0.0 0.0 0.00 0.00 0.00 52 1008.3
20260905172001 27 268 0.0 0.0 0.00 0.00 0.00 52 1008.3
20260905171901 27 246 0.0 0.0 0.00 0.00 0.00 53 1008.4
20260905171801 27 317 0.0 0.0 0.00 0.00 0.00 55 1008.4
20260905171752 27 329 0.0 0.0 0.00 0.00 0.00 55 1008.4
20260905171714 27 255 0.0 0.0 0.00 0.00 0.00 53 1008.4
20260905171709 27 255 0.0 0.0 0.00 0.00 0.00 53 1008.3
20260905171530 27 294 0.0 0.0 0.00 0.00 0.00 52 1008.4
20260905171459 27 294 0.0 0.0 0.00 0.00 0.00 52 1008.4
20260905171359 27 279 0.0 0.0 0.00 0.00 0.00 51 1008.3
20260905171251 27 284 0.0 0.0 0.00 0.00 0.00 51 1008.3
20260905171212 27 283 0.0 0.0 0.00 0.00 0.00 50 1008.3
20260905171207 27 281 0.0 0.0 0.00 0.00 0.00 50 1008.4
20260905171029 27 272 0.0 0.0 0.00 0.00 0.00 52 1008.4
20260905170958 27 273 0.0 0.0 0.00 0.00 0.00 52 1008.4
20260905170857 27 273 0.0 0.0 0.00 0.00 0.00 53 1008.4
20260905170751 27 273 0.0 0.0 0.00 0.00 0.00 53 1008.4
20260905170656 27 255 0.0 0.0 0.00 0.00 0.00 52 1008.5
20260905170555 27 274 0.0 0.0 0.00 0.00 0.00 51 1008.4
20260905170540 27 330 0.0 0.0 0.00 0.00 0.00 54 1008.4
20260905170534 27 323 0.0 0.0 0.00 0.00 0.00 54 1008.4
20260905170530 26 257 0.0 0.0 0.00 0.00 0.00 54 1008.4
20260905170525 27 301 0.0 0.0 0.00 0.00 0.00 51 1008.4
20260905170516 27 269 0.0 0.0 0.00 0.00 0.00 52 1008.4
20260905170052 26 257 0.0 0.0 0.00 0.00 0.00 53 1008.4
20260905170044 27 257 0.0 0.0 0.00 0.00 0.00 53 1008.3
20260905165949 26 257 0.0 0.0 0.00 0.00 0.00 53 1008.3
20260905165849 26 257 0.0 0.0 0.00 0.00 0.00 52 1008.3
20260905165750 27 260 0.0 0.0 0.00 0.00 0.00 52 1008.4
20260905165648 27 0 0.0 0.0 0.00 0.00 0.00 52 1008.4
20260905165548 27 329 0.0 0.0 0.00 0.00 0.00 53 1008.4
20260905165529 27 296 0.0 0.0 0.00 0.00 0.00 57 1008.4
20260905165514 26 277 0.0 0.0 0.00 0.00 0.00 56 1008.4
20260905165447 27 302 0.0 0.0 0.00 0.00 0.00 57 1008.4
20260905165401 27 278 0.0 0.0 0.00 0.00 0.00 57 1008.3
20260905165246 26 277 0.0 0.0 0.00 0.00 0.00 56 1008.4
20260905165200 26 309 0.0 0.0 0.00 0.00 0.00 54 1008.4
20260905165155 26 277 0.0 0.0 0.00 0.00 0.00 56 1008.3
20260905165030 26 266 0.0 0.0 0.00 0.00 0.00 54 1008.4
20260905165013 26 9 0.0 0.0 0.00 0.00 0.00 55 1008.4
20260905164945 26 336 0.0 0.0 0.00 0.00 0.00 54 1008.4
20260905164859 26 350 0.0 0.0 0.00 0.00 0.00 56 1008.5
20260905164744 26 9 0.0 0.0 0.00 0.00 0.00 55 1008.4
20260905164644 26 9 0.0 0.0 0.00 0.00 0.00 52 1008.4
20260905164557 26 303 0.0 0.0 0.00 0.00 0.00 55 1008.6
20260905164552 26 290 0.0 0.0 0.00 0.00 0.00 54 1008.5
20260905164529 26 303 0.0 0.0 0.00 0.00 0.00 55 1008.6
20260905164357 26 324 0.0 0.0 0.00 0.00 0.00 55 1008.6
20260905164348 26 324 0.0 0.0 0.00 0.00 0.00 54 1008.6
20260905164142 26 324 0.0 0.0 0.00 0.00 0.00 54 1008.6
20260905164040 26 70 0.0 0.0 0.00 0.00 0.00 55 1008.6
20260905164029 26 70 0.0 0.0 0.00 0.00 0.00 54 1008.7
20260905163939 26 70 0.0 0.0 0.00 0.00 0.00 54 1008.7
20260905163838 26 254 0.0 0.0 0.00 0.00 0.00 55 1008.7
20260905163738 26 252 0.0 0.0 0.00 0.00 0.00 55 1008.7
20260905163637 26 252 0.0 0.0 0.00 0.00 0.00 54 1008.7
20260905163537 26 252 0.0 0.0 0.00 0.00 0.00 55 1008.7
20260905163530 26 251 0.0 0.0 0.00 0.00 0.00 56 1008.7
20260905163437 26 286 0.0 0.0 0.00 0.00 0.00 56 1008.7
20260905163337 26 291 0.0 0.0 0.00 0.00 0.00 56 1008.7
20260905163236 26 224 0.0 0.0 0.00 0.00 0.00 55 1008.7
20260905163135 26 277 0.0 0.0 0.00 0.00 0.00 55 1008.6
20260905163055 26 278 0.0 0.0 0.00 0.00 0.00 54 1008.6
20260905163029 26 277 0.0 0.0 0.00 0.00 0.00 53 1008.7
20260905162941 26 288 0.0 0.0 0.00 0.00 0.00 53 1008.7
20260905162741 26 294 0.0 0.0 0.00 0.00 0.00 52 1008.6
20260905162732 26 23 0.0 0.0 0.00 0.00 0.00 52 1008.6
20260905162645 26 323 0.0 0.0 0.00 0.00 0.00 54 1008.7
20260905162640 26 24 0.0 0.0 0.00 0.00 0.00 53 1008.7
20260905162530 26 309 0.0 0.0 0.00 0.00 0.00 52 1008.7
20260905162431 26 271 0.0 0.0 0.00 0.00 0.00 52 1008.7
20260905162330 26 300 0.0 0.0 0.00 0.00 0.00 53 1008.7
20260905162239 26 325 0.0 0.0 0.00 0.00 0.00 53 1008.8
20260905162230 26 269 0.0 0.0 0.00 0.00 0.00 52 1008.8
20260905162142 26 300 0.0 0.0 0.00 0.00 0.00 52 1008.9
20260905162137 26 319 0.0 0.0 0.00 0.00 0.00 52 1008.9
20260905162029 26 312 0.0 0.0 0.00 0.00 0.00 53 1008.8
20260905161928 26 331 0.0 0.0 0.00 0.00 0.00 53 1008.8
20260905161827 26 34 0.0 0.0 0.00 0.00 0.00 53 1008.8
20260905161810 26 153 0.0 0.0 0.00 0.00 0.00 54 1008.9
20260905161805 26 355 0.0 0.0 0.00 0.00 0.00 53 1008.8
20260905161758 26 355 0.0 0.0 0.00 0.00 0.00 55 1008.8
20260905161535 26 11 0.0 0.0 0.00 0.00 0.00 54 1008.7
20260905161529 26 17 0.0 0.0 0.00 0.00 0.00 54 1008.7
20260905161325 26 123 0.0 0.0 0.00 0.00 0.00 55 1008.7
20260905161245 26 61 0.0 0.0 0.00 0.00 0.00 54 1008.7
20260905161241 26 86 0.0 0.0 0.00 0.00 0.00 55 1008.7
20260905161234 26 36 0.0 0.0 0.00 0.00 0.00 55 1008.7
20260905161107 26 315 0.0 0.0 0.00 0.00 0.00 57 1006.5
20260905161101 26 279 0.0 0.0 0.00 0.00 0.00 54 1008.7
20260905161029 26 278 0.0 0.0 0.00 0.00 0.00 54 1006.5
20260905160947 26 296 0.0 0.0 0.00 0.00 0.00 55 1006.5
20260905160830 26 67 0.0 0.0 0.00 0.00 0.00 57 1006.5
20260905160623 26 317 0.0 0.0 0.00 0.00 0.00 56 1006.2
20260905160559 26 360 0.0 0.0 0.00 0.00 0.00 56 1005.7
20260905160523 26 286 0.0 0.0 0.00 0.00 0.00 56 1005.7
20260905160435 26 283 0.0 0.0 0.00 0.00 0.00 56 1005.7
20260905160430 26 0 0.0 0.0 0.00 0.00 0.00 54 1005.7
20260905160238 26 236 0.0 0.0 0.00 0.00 0.00 55 1005.8
20260905160221 26 281 0.0 0.0 0.00 0.00 0.00 55 1005.8
20260905160120 26 342 0.0 0.0 0.00 0.00 0.00 56 1005.8
20260905160046 26 284 0.0 0.0 0.00 0.00 0.00 57 1005.6
20260905160044 26 281 0.0 0.0 0.00 0.00 0.00 58 1005.6
20260905160041 26 286 0.0 0.0 0.00 0.00 0.00 56 1005.5
20260905160036 26 283 0.0 0.0 0.00 0.00 0.00 58 1005.6
20260905155740 26 286 0.0 0.0 0.00 0.00 0.00 54 1005.2
20260905155627 26 333 0.0 0.0 0.00 0.00 0.00 55 1005.2
20260905155529 26 315 0.0 0.0 0.00 0.00 0.00 57 1005.2
20260905155417 26 310 0.0 0.0 0.00 0.00 0.00 59 1005.1
20260905155344 26 315 0.0 0.0 0.00 0.00 0.00 57 1005.0
20260905155336 26 321 0.0 0.0 0.00 0.00 0.00 57 1005.1
20260905155225 26 321 0.0 0.0 0.00 0.00 0.00 57 1005.1
20260905155029 26 349 0.0 0.0 0.00 0.00 0.00 57 1004.9
20260905155015 26 313 0.0 0.0 0.00 0.00 0.00 55 1004.8
20260905154957 26 275 0.0 0.0 0.00 0.00 0.00 56 1004.7
20260905154915 26 327 0.0 0.0 0.00 0.00 0.00 56 1004.8
20260905154844 26 327 0.0 0.0 0.00 0.00 0.00 56 1004.7
20260905154730 26 19 0.0 0.0 0.00 0.00 0.00 55 1004.6
20260905154725 26 290 0.0 0.0 0.00 0.00 0.00 56 1004.7
20260905154559 26 326 0.0 0.0 0.00 0.00 0.00 55 1004.7
20260905154514 26 355 0.0 0.0 0.00 0.00 0.00 55 1004.7
20260905154428 26 19 0.0 0.0 0.00 0.00 0.00 57 1004.4
20260905154422 26 283 0.0 0.0 0.00 0.00 0.00 56 1004.6
20260905154213 26 22 0.0 0.0 0.00 0.00 0.00 57 1004.2
20260905154113 26 24 0.0 0.0 0.00 0.00 0.00 59 1004.2
20260905154029 26 342 0.0 0.0 0.00 0.00 0.00 58 1004.3
20260905154026 26 333 0.0 0.0 0.00 0.00 0.00 57 1004.2
20260905154021 26 342 0.0 0.0 0.00 0.00 0.00 58 1004.2
20260905153812 26 336 0.0 0.0 0.00 0.00 0.00 57 1004.0
20260905153731 26 277 0.0 0.0 0.00 0.00 0.00 57 1003.8
20260905153712 26 308 0.0 0.0 0.00 0.00 0.00 58 1003.8
20260905153610 26 321 0.0 0.0 0.00 0.00 0.00 58 1004.0
20260905153529 26 321 0.0 0.0 0.00 0.00 0.00 58 1003.8
20260905153509 26 321 0.0 0.0 0.00 0.00 0.00 58 1004.0
20260905153409 26 343 0.0 0.0 0.00 0.00 0.00 56 1003.7
20260905153307 26 313 0.0 0.0 0.00 0.00 0.00 56 1003.5
20260905153230 26 268 0.0 0.0 0.00 0.00 0.00 56 1003.8
20260905153208 26 267 0.0 0.0 0.00 0.00 0.00 56 1003.8
20260905153106 26 290 0.0 0.0 0.00 0.00 0.00 57 1003.6
20260905153029 26 343 0.0 0.0 0.00 0.00 0.00 56 1005.3
20260905153007 26 294 0.0 0.0 0.00 0.00 0.00 56 1003.6
20260905152906 26 310 0.0 0.0 0.00 0.00 0.00 56 1005.2
20260905152808 26 259 0.0 0.0 0.00 0.00 0.00 57 1005.2
20260905152727 26 5 0.0 0.0 0.00 0.00 0.00 56 1004.5
20260905152706 26 328 0.0 0.0 0.00 0.00 0.00 56 1004.5
20260905152620 26 290 0.0 0.0 0.00 0.00 0.00 57 1004.2
20260905152614 26 274 0.0 0.0 0.00 0.00 0.00 57 1004.5
20260905152530 26 290 0.0 0.0 0.00 0.00 0.00 57 1004.0
20260905152406 26 325 0.0 0.0 0.00 0.00 0.00 56 1003.9
20260905152306 26 283 0.0 0.0 0.00 0.00 0.00 56 1003.9
20260905152227 26 256 0.0 0.0 0.00 0.00 0.00 58 1003.9
20260905152219 26 273 0.0 0.0 0.00 0.00 0.00 58 1003.2
20260905152213 26 324 0.0 0.0 0.00 0.00 0.00 58 1003.7
20260905152030 26 340 0.0 0.0 0.00 0.00 0.00 57 1003.1
20260905152004 26 340 0.0 0.0 0.00 0.00 0.00 57 1003.0
20260905151903 26 26 0.0 0.0 0.00 0.00 0.00 56 1008.9
20260905151803 26 294 0.0 0.0 0.00 0.00 0.00 56 1008.9
20260905151727 26 296 0.0 0.0 0.00 0.00 0.00 58 1008.9
20260905151702 26 271 0.0 0.0 0.00 0.00 0.00 58 1008.7
20260905151603 26 240 0.0 0.0 0.00 0.00 0.00 58 1003.7
20260905151559 26 292 0.0 0.0 0.00 0.00 0.00 58 1003.8
20260905151517 26 274 0.0 0.0 0.00 0.00 0.00 58 1003.7
20260905151511 26 292 0.0 0.0 0.00 0.00 0.00 58 1003.7
20260905151303 26 317 0.0 0.0 0.00 0.00 0.00 57 1008.5
20260905151225 26 249 0.0 0.0 0.00 0.00 0.00 57 1008.5
20260905151201 26 318 0.0 0.0 0.00 0.00 0.00 57 1008.5
20260905151101 26 279 0.0 0.0 0.00 0.00 0.00 58 1008.5
20260905151029 26 282 0.0 0.0 0.00 0.00 0.00 59 1008.5
20260905151000 25 282 0.0 0.0 0.00 0.00 0.00 57 1008.5
20260905150901 25 297 0.0 0.0 0.00 0.00 0.00 58 1003.9
20260905150800 25 305 0.0 0.0 0.00 0.00 0.00 59 1003.9
20260905150727 25 299 0.0 0.0 0.00 0.00 0.00 60 1003.9
20260905150700 25 326 0.0 0.0 0.00 0.00 0.00 60 1003.4
20260905150559 25 294 0.0 0.0 0.00 0.00 0.00 60 1002.7
20260905150529 25 277 0.0 0.0 0.00 0.00 0.00 61 1002.8
20260905150520 25 281 0.0 0.0 0.00 0.00 0.00 61 1002.7
20260905150407 25 276 0.0 0.0 0.00 0.00 0.00 63 1002.7
20260905150224 25 294 0.0 0.0 0.00 0.00 0.00 63 1006.1
20260905150157 25 298 0.0 0.0 0.00 0.00 0.00 62 1006.1
20260905150057 25 311 0.0 0.0 0.00 0.00 0.00 63 1006.1
20260905150030 25 348 0.0 0.0 0.00 0.00 0.00 64 1003.7
20260905150010 25 348 0.0 0.0 0.00 0.00 0.00 63 1003.6
20260905150005 25 348 0.0 0.0 0.00 0.00 0.00 64 1003.6
20260905145811 25 348 0.0 0.0 0.00 0.00 0.00 60 1003.1
20260905145759 25 348 0.0 0.0 0.00 0.00 0.00 61 1003.6
20260905145553 25 0 0.0 0.0 0.00 0.00 0.00 62 1003.4
20260905145529 25 355 0.0 0.0 0.00 0.00 0.00 61 1002.9
20260905145506 25 351 0.0 0.0 0.00 0.00 0.00 60 1003.7
20260905145502 25 351 0.0 0.0 0.00 0.00 0.00 61 1002.8
20260905145251 25 227 0.0 0.0 0.00 0.00 0.00 62 1003.7
20260905145220 25 11 0.0 0.0 0.00 0.00 0.00 62 1003.7
20260905145150 25 0 0.0 0.0 0.00 0.00 0.00 62 1003.9
20260905145050 25 299 0.0 0.0 0.00 0.00 0.00 61 1004.4
20260905145030 25 320 0.0 0.0 0.00 0.00 0.00 62 1004.5
20260905144950 25 320 0.0 0.0 0.00 0.00 0.00 62 1004.4
20260905144849 25 320 0.0 0.0 0.00 0.00 0.00 61 1004.6
20260905144749 25 313 0.0 0.0 0.00 0.00 0.00 61 1004.0
20260905144721 25 317 0.0 0.0 0.00 0.00 0.00 61 1004.0
20260905144649 25 287 0.0 0.0 0.00 0.00 0.00 62 1003.9
20260905144549 25 335 0.0 0.0 0.00 0.00 0.00 63 1003.2
20260905144529 25 273 0.0 0.0 0.00 0.00 0.00 63 1003.6
20260905144449 25 273 0.0 0.0 0.00 0.00 0.00 63 1003.5
20260905144348 25 271 0.0 0.0 0.00 0.00 0.00 64 1004.1
20260905144248 25 295 0.0 0.0 0.00 0.00 0.00 63 1003.8
20260905144220 25 304 0.0 0.0 0.00 0.00 0.00 64 1003.8
20260905144147 25 45 0.0 0.0 0.00 0.00 0.00 64 1003.8
20260905144047 25 119 0.0 0.0 0.00 0.00 0.00 64 1003.5
20260905144029 25 119 0.0 0.0 0.00 0.00 0.00 63 1003.4
20260905143947 25 119 0.0 0.0 0.00 0.00 0.00 63 1003.3
20260905143845 25 71 0.0 0.0 0.00 0.00 0.00 64 1003.5
20260905143719 25 305 0.0 0.0 0.00 0.00 0.00 64 1003.7
20260905143645 25 305 0.0 0.0 0.00 0.00 0.00 64 1003.2
20260905143557 25 348 0.0 0.0 0.00 0.00 0.00 64 1003.2
20260905143553 25 306 0.0 0.0 0.00 0.00 0.00 64 1003.2
20260905143529 25 329 0.0 0.0 0.00 0.00 0.00 64 1003.3
20260905143437 24 316 0.0 0.0 0.00 0.00 0.00 65 1003.4
20260905143344 24 321 0.0 0.0 0.00 0.00 0.00 65 1003.1
20260905143326 24 316 0.0 0.0 0.00 0.00 0.00 65 1003.4
20260905143155 24 317 0.0 0.0 0.00 0.00 0.00 64 1004.0
20260905143151 24 316 0.0 0.0 0.00 0.00 0.00 65 1003.4
20260905143030 24 317 0.0 0.0 0.00 0.00 0.00 64 1003.3
20260905142958 24 303 0.0 0.0 0.00 0.00 0.00 66 1003.2
20260905142954 24 302 0.0 0.0 0.00 0.00 0.00 65 1003.2
20260905142949 24 317 0.0 0.0 0.00 0.00 0.00 67 1003.2
20260905142825 24 302 0.0 0.0 0.00 0.00 0.00 65 1003.2
20260905142638 24 302 0.0 0.0 0.00 0.00 0.00 65 1003.2
20260905142536 24 302 0.0 0.0 0.00 0.00 0.00 64 1003.2
20260905142530 24 313 0.0 0.0 0.00 0.00 0.00 65 1003.3
20260905142435 24 347 0.0 0.0 0.00 0.00 0.00 67 1003.2
20260905142335 24 281 0.0 0.0 0.00 0.00 0.00 67 1003.3
20260905142236 24 21 0.0 0.0 0.00 0.00 0.00 69 1003.6
20260905142216 24 21 0.0 0.0 0.00 0.00 0.00 69 1003.6
20260905142133 24 21 0.0 0.0 0.00 0.00 0.00 68 1003.4
20260905142033 23 22 0.0 0.0 0.00 0.00 0.00 67 1003.2
20260905142029 23 350 0.0 0.0 0.00 0.00 0.00 68 1004.7
20260905141932 23 350 0.0 0.0 0.00 0.00 0.00 68 1004.6
20260905141832 23 344 0.0 0.0 0.00 0.00 0.00 67 1004.6
20260905141732 23 344 0.0 0.0 0.00 0.00 0.00 68 1004.2
20260905141715 23 323 0.0 0.0 0.00 0.00 0.00 68 1004.2
20260905141631 23 269 0.0 0.0 0.00 0.00 0.00 69 1003.6
20260905141531 23 269 0.0 0.0 0.00 0.00 0.00 69 1003.3
20260905141529 23 269 0.0 0.0 0.00 0.00 0.00 68 1006.4
20260905141431 23 36 0.0 0.0 0.00 0.00 0.00 68 1006.4
20260905141329 23 328 0.0 0.0 0.00 0.00 0.00 70 1006.4
20260905141227 23 340 0.0 0.0 0.00 0.00 0.00 69 1006.4
20260905141214 23 340 0.0 0.0 0.00 0.00 0.00 69 1006.4
20260905141126 23 341 0.0 0.0 0.00 0.00 0.00 69 1005.9
20260905141030 23 342 0.0 0.0 0.00 0.00 0.00 69 1004.5
20260905141026 23 341 0.0 0.0 0.00 0.00 0.00 71 1005.9
20260905140925 23 342 0.0 0.0 0.00 0.00 0.00 68 1004.4
20260905140824 23 342 0.0 0.0 0.00 0.00 0.00 67 1004.4
20260905140715 23 78 0.0 0.0 0.00 0.00 0.00 68 1004.4
20260905140621 23 80 0.0 0.0 0.00 0.00 0.00 67 1007.1
20260905140530 23 342 0.0 0.0 0.00 0.00 0.00 67 1007.7
20260905140521 23 342 0.0 0.0 0.00 0.00 0.00 67 1007.1
20260905140421 23 11 0.0 0.0 0.00 0.00 0.00 67 1007.6
20260905140320 23 355 0.0 0.0 0.00 0.00 0.00 69 1008.1
20260905140212 23 269 0.0 0.0 0.00 0.00 0.00 68 1008.0
20260905140132 23 30 0.0 0.0 0.00 0.00 0.00 68 1007.3
20260905140128 23 293 0.0 0.0 0.00 0.00 0.00 68 1007.9
20260905140044 23 317 0.0 0.0 0.00 0.00 0.00 68 1007.3
20260905135930 23 328 0.0 0.0 0.00 0.00 0.00 67 1006.6
20260905135926 23 317 0.0 0.0 0.00 0.00 0.00 68 1007.3
20260905135712 23 298 0.0 0.0 0.00 0.00 0.00 69 1004.3
20260905135616 23 53 0.0 0.0 0.00 0.00 0.00 71 1004.3
20260905135544 23 53 0.0 0.0 0.00 0.00 0.00 70 1003.9
20260905135515 23 53 0.0 0.0 0.00 0.00 0.00 70 1004.3
20260905135414 23 49 0.0 0.0 0.00 0.00 0.00 71 1003.8
20260905135313 23 309 0.0 0.0 0.00 0.00 0.00 70 1003.6
20260905135214 23 309 0.0 0.0 0.00 0.00 0.00 70 1003.9
20260905135112 23 336 0.0 0.0 0.00 0.00 0.00 70 1003.5
20260905135030 23 336 0.0 0.0 0.00 0.00 0.00 69 1005.5
20260905135012 23 336 0.0 0.0 0.00 0.00 0.00 69 1005.5
20260905134938 23 319 0.0 0.0 0.00 0.00 0.00 70 1005.5
20260905134825 23 0 0.0 0.0 0.00 0.00 0.00 71 1006.4
20260905134711 23 324 0.0 0.0 0.00 0.00 0.00 71 1006.4
20260905134610 23 313 0.0 0.0 0.00 0.00 0.00 71 1005.9
20260905134530 23 313 0.0 0.0 0.00 0.00 0.00 74 1006.7
20260905134507 23 313 0.0 0.0 0.00 0.00 0.00 74 1006.3
20260905134406 23 355 0.0 0.0 0.00 0.00 0.00 74 1006.7
20260905134306 23 351 0.0 0.0 0.00 0.00 0.00 72 1006.7
20260905134212 23 355 0.0 0.0 0.00 0.00 0.00 72 1006.7
20260905134206 23 322 0.0 0.0 0.00 0.00 0.00 72 1006.4
20260905134105 23 313 0.0 0.0 0.00 0.00 0.00 73 1005.9
20260905134030 23 319 0.0 0.0 0.00 0.00 0.00 74 1006.1
20260905134019 23 22 0.0 0.0 0.00 0.00 0.00 74 1006.1
20260905134015 23 319 0.0 0.0 0.00 0.00 0.00 74 1005.9
20260905133825 23 5 0.0 0.0 0.00 0.00 0.00 72 1005.8
20260905133819 23 5 0.0 0.0 0.00 0.00 0.00 73 1005.1
20260905133810 23 9 0.0 0.0 0.00 0.00 0.00 72 1005.1
20260905133604 23 338 0.0 0.0 0.00 0.00 0.00 73 1005.8
20260905133530 23 331 0.0 0.0 0.00 0.00 0.00 73 1005.7
20260905133527 23 286 0.0 0.0 0.00 0.00 0.00 73 1004.6
20260905133503 23 331 0.0 0.0 0.00 0.00 0.00 73 1005.7
20260905133432 23 286 0.0 0.0 0.00 0.00 0.00 73 1004.6
20260905133427 23 333 0.0 0.0 0.00 0.00 0.00 73 1004.6
20260905133417 23 287 0.0 0.0 0.00 0.00 0.00 73 1004.6
20260905133102 23 286 0.0 0.0 0.00 0.00 0.00 73 1005.0
20260905133030 23 286 0.0 0.0 0.00 0.00 0.00 72 1004.6
20260905133002 23 286 0.0 0.0 0.00 0.00 0.00 72 1004.5
20260905132938 23 68 0.0 0.0 0.00 0.00 0.00 73 1004.8
20260905132901 23 272 0.0 0.0 0.00 0.00 0.00 72 1005.2
20260905132815 23 272 0.0 0.0 0.00 0.00 0.00 73 1004.8
20260905132658 23 68 0.0 0.0 0.00 0.00 0.00 73 1004.8
20260905132558 23 270 0.0 0.0 0.00 0.00 0.00 72 1007.4
20260905132529 23 269 0.0 0.0 0.00 0.00 0.00 73 1007.5
20260905132457 23 269 0.0 0.0 0.00 0.00 0.00 74 1007.4
20260905132411 23 321 0.0 0.0 0.00 0.00 0.00 75 1007.2
20260905132406 23 333 0.0 0.0 0.00 0.00 0.00 75 1007.4
20260905132206 23 350 0.0 0.0 0.00 0.00 0.00 75 1007.2
20260905132156 23 214 0.0 0.0 0.00 0.00 0.00 75 1007.5
20260905132110 23 213 0.0 0.0 0.00 0.00 0.00 76 1005.9
20260905132104 23 214 0.0 0.0 0.00 0.00 0.00 75 1007.5
20260905132030 23 213 0.0 0.0 0.00 0.00 0.00 76 1006.0
20260905131855 23 211 0.0 0.0 0.00 0.00 0.00 76 1005.9
20260905131754 23 275 0.0 0.0 0.00 0.00 0.00 77 1005.9
20260905131706 23 250 0.0 0.0 0.00 0.00 0.00 76 1005.9
20260905131655 22 207 0.0 0.0 0.00 0.00 0.00 76 1006.3
20260905131553 22 273 0.0 0.0 0.00 0.00 0.00 76 1007.1
20260905131529 22 273 0.0 0.0 0.00 0.00 0.00 76 1007.2
20260905131453 22 273 0.0 0.0 0.00 0.00 0.00 76 1007.1
20260905131353 22 273 0.0 0.0 0.00 0.00 0.00 77 1006.1
20260905131252 22 281 0.0 0.0 0.00 0.00 0.00 77 1006.1
20260905131206 22 281 0.0 0.0 0.00 0.00 0.00 77 1006.1
20260905131151 22 281 0.0 0.0 0.00 0.00 0.00 77 1006.5
20260905131050 22 269 0.0 0.0 0.00 0.00 0.00 78 1007.0
20260905131030 22 269 0.0 0.0 0.00 0.00 0.00 78 1007.1
20260905130950 22 269 0.0 0.0 0.00 0.00 0.00 78 1007.0
20260905130850 22 269 0.0 0.0 0.00 0.00 0.00 78 1007.0
20260905130810 22 269 0.0 0.0 0.00 0.00 0.00 79 1007.3
20260905130805 22 269 0.0 0.0 0.00 0.00 0.00 78 1007.3
20260905130756 22 269 0.0 0.0 0.00 0.00 0.00 78 1007.3
20260905130611 22 269 0.0 0.0 0.00 0.00 0.00 79 1007.5
20260905130530 22 269 0.0 0.0 0.00 0.03 0.00 78 1007.9
20260905130457 22 269 0.0 0.0 0.00 0.00 0.00 78 1007.9
20260905130307 22 263 0.0 0.0 0.00 0.00 0.00 79 1007.9
20260905130301 22 263 0.0 0.0 0.00 0.00 0.00 78 1007.9
20260905130254 22 263 0.0 0.0 0.00 0.00 0.00 78 1007.9
20260905130046 22 263 0.0 0.0 0.00 0.00 0.00 80 1008.0
20260905130030 22 262 0.0 0.0 0.00 0.03 0.00 79 1008.1
20260905125946 22 262 0.0 0.0 0.00 0.00 0.00 79 1008.1
20260905125844 22 262 0.0 0.0 0.00 0.00 0.00 79 1008.3
20260905125743 22 262 0.0 0.0 0.00 0.00 0.00 79 1008.3
20260905125704 22 263 0.0 0.0 0.00 0.00 0.00 79 1008.4
20260905125642 22 263 0.0 0.0 0.00 0.00 0.00 79 1008.4
20260905125542 22 263 0.0 0.0 0.00 0.00 0.00 79 1008.4
20260905125530 22 263 0.0 0.0 0.00 0.03 0.00 80 1008.5
20260905125442 21 263 0.0 0.0 0.00 0.00 0.00 80 1008.4
20260905125341 21 263 0.0 0.0 0.00 0.00 0.00 80 1008.4
20260905125241 21 263 0.0 0.0 0.00 0.00 0.00 81 1008.5
20260905125204 21 263 0.0 0.0 0.00 0.00 0.00 82 1008.5
20260905125140 21 262 0.0 0.0 0.00 0.00 0.00 82 1008.5
20260905125039 21 262 0.0 0.0 0.00 0.00 0.00 82 1008.6
20260905125029 21 262 0.0 0.0 0.00 0.03 0.00 82 1008.6
20260905124939 21 262 0.0 0.0 0.00 0.00 0.00 82 1008.6
20260905124912 21 262 0.0 0.0 0.00 0.00 0.00 82 1008.5
20260905124908 21 262 0.0 0.0 0.00 0.00 0.00 83 1008.4
20260905124902 21 262 0.0 0.0 0.00 0.00 0.00 82 1008.6
20260905124745 21 262 0.0 0.0 0.00 0.00 0.00 83 1008.4
20260905124552 21 262 0.0 0.0 0.00 0.00 0.00 83 1008.4
20260905124547 21 262 0.0 0.0 0.00 0.00 0.00 82 1008.4
20260905124530 21 262 0.0 0.0 0.00 0.03 0.00 82 1008.4
20260905124336 21 262 0.0 0.0 0.00 0.00 0.00 83 1008.4
20260905124236 21 262 0.0 0.0 0.00 0.00 0.00 83 1008.6
20260905124202 21 262 0.0 0.0 0.00 0.00 0.00 83 1008.6
20260905124136 21 262 0.0 0.0 0.00 0.00 0.00 83 1008.6
20260905124047 21 262 0.0 0.0 0.00 0.00 0.00 83 1008.7
20260905124030 21 262 0.0 0.0 0.00 0.03 0.00 83 1008.8
20260905123934 21 262 0.0 0.0 0.00 0.00 0.00 83 1008.8
20260905123926 21 262 0.0 0.0 0.00 0.00 0.00 83 1008.9
20260905123919 21 262 0.0 0.0 0.00 0.00 0.00 83 1008.9
20260905123633 21 262 0.0 0.0 0.00 0.00 0.00 83 1009.0
20260905123545 21 262 0.0 0.0 0.00 0.00 0.00 83 1008.9
20260905123535 21 262 0.0 0.0 0.00 0.00 0.00 84 1009.0
20260905123530 21 262 0.0 0.0 0.00 0.03 0.00 84 1009.0
20260905123424 21 262 0.0 0.0 0.00 0.00 0.00 84 1009.0
20260905123417 21 262 0.0 0.0 0.00 0.00 0.00 84 1009.0
20260905123145 21 262 0.0 0.0 0.00 0.00 0.00 84 1008.8
20260905123139 21 262 0.0 0.0 0.00 0.00 0.00 84 1008.9
20260905123044 21 262 0.0 0.0 0.00 0.03 0.00 84 1008.7
20260905122930 21 262 0.0 0.0 0.00 0.00 0.00 84 1008.7
20260905122830 21 264 0.0 0.0 0.00 0.00 0.00 84 1008.8
20260905122729 21 264 0.0 0.0 0.00 0.00 0.00 85 1008.9
20260905122629 20 264 0.0 0.0 0.00 0.00 0.00 85 1008.9
20260905122530 21 264 0.0 0.0 0.00 0.03 0.00 86 1009.1
20260905122428 20 264 0.0 0.0 0.00 0.00 0.00 86 1009.1
20260905122327 20 264 0.0 0.0 0.00 0.00 0.00 86 1009.1
20260905122226 20 263 0.0 0.0 0.00 0.00 0.00 86 1009.1
20260905122159 20 263 0.0 0.0 0.00 0.00 0.00 86 1009.2
20260905122126 20 263 0.0 0.0 0.00 0.00 0.00 87 1009.2
20260905122102 20 263 0.0 0.0 0.00 0.00 0.00 88 1009.2
20260905122057 20 263 0.0 0.0 0.00 0.00 0.00 87 1009.2
20260905122030 20 263 0.0 0.0 0.00 0.03 0.00 87 1009.2
20260905121834 20 263 0.0 0.0 0.00 0.00 0.00 88 1009.2
20260905121657 20 263 0.0 0.0 0.00 0.00 0.00 87 1009.2
20260905121625 20 263 0.0 0.0 0.00 0.00 0.00 88 1009.2
20260905121529 20 263 0.0 0.0 0.00 0.03 0.00 87 1009.1
20260905121524 20 263 0.0 0.0 0.00 0.00 0.00 87 1009.2
20260905121424 20 263 0.0 0.0 0.00 0.00 0.00 87 1009.1
20260905121323 20 263 0.0 0.0 0.00 0.00 0.00 88 1009.0
20260905121223 20 263 0.0 0.0 0.00 0.00 0.00 88 1009.0
20260905121155 20 263 0.0 0.0 0.00 0.00 0.00 88 1009.1
20260905121124 20 263 0.0 0.0 0.00 0.00 0.00 89 1009.2
20260905121029 20 263 0.0 0.0 0.00 0.03 0.00 89 1009.1
20260905121024 20 263 0.0 0.0 0.00 0.00 0.00 89 1009.1
20260905120923 20 263 0.0 0.0 0.00 0.00 0.00 89 1009.1
20260905120824 20 263 0.0 0.0 0.00 0.00 0.00 90 1009.1
20260905120723 20 263 0.0 0.0 0.00 0.00 0.00 90 1009.0
20260905120655 20 263 0.0 0.0 0.00 0.00 0.00 89 1009.0
20260905120623 20 263 0.0 0.0 0.00 0.00 0.00 89 1009.0
20260905120529 20 263 0.0 0.0 0.00 0.03 0.00 90 1009.1
20260905120523 20 263 0.0 0.0 0.00 0.00 0.00 90 1009.0
20260905120440 20 263 0.0 0.0 0.00 0.00 0.00 90 1009.0
20260905120436 20 263 0.0 0.0 0.00 0.00 0.00 90 1009.1
20260905120431 20 263 0.0 0.0 0.00 0.00 0.00 90 1009.0
20260905120302 20 263 0.0 0.0 0.00 0.00 0.00 90 1009.1
20260905120119 20 263 0.0 0.0 0.00 0.00 0.00 90 1009.1
20260905120030 20 263 0.0 0.0 0.00 0.03 0.00 91 1009.2
20260905120019 20 263 0.0 0.0 0.00 0.00 0.00 91 1009.1
20260905115931 20 263 0.0 0.0 0.00 0.00 0.00 90 1009.0
20260905115926 20 263 0.0 0.0 0.00 0.00 0.00 90 1009.1
20260905115716 20 263 0.0 0.0 0.00 0.00 0.00 90 1009.0
20260905115655 20 263 0.0 0.0 0.00 0.00 0.00 90 1009.0
20260905115616 20 263 0.0 0.0 0.00 0.00 0.00 90 1009.0
20260905115530 20 263 0.0 0.0 0.00 0.03 0.00 89 1009.2
20260905115516 20 263 0.0 0.0 0.00 0.00 0.00 89 1009.1
20260905115415 20 263 0.0 0.0 0.00 0.00 0.00 89 1009.1
20260905115314 20 263 0.0 0.0 0.00 0.00 0.00 89 1009.1
20260905115215 20 263 0.0 0.0 0.00 0.00 0.00 89 1009.1
20260905115153 20 263 0.0 0.0 0.00 0.00 0.00 89 1009.1
20260905115114 20 263 0.0 0.0 0.00 0.00 0.00 89 1009.1
20260905115030 20 263 0.0 0.0 0.00 0.03 0.00 89 1009.2
20260905115013 20 263 0.0 0.0 0.00 0.00 0.00 89 1009.0
20260905114927 20 263 0.0 0.0 0.00 0.00 0.00 90 1009.1
20260905114922 20 263 0.0 0.0 0.00 0.00 0.00 89 1009.1
20260905114711 20 263 0.0 0.0 0.00 0.00 0.00 90 1009.1
20260905114651 20 263 0.0 0.0 0.00 0.00 0.00 90 1009.1
20260905114612 20 263 0.0 0.0 0.00 0.00 0.00 90 1009.1
20260905114529 20 263 0.0 0.0 0.00 0.03 0.00 90 1009.2
20260905114525 20 263 0.0 0.0 0.00 0.00 0.00 90 1009.1
20260905114520 20 263 0.0 0.0 0.00 0.00 0.00 90 1009.1
20260905114310 20 263 0.0 0.0 0.00 0.00 0.00 90 1009.1
20260905114210 20 263 0.0 0.0 0.00 0.00 0.00 90 1009.1
20260905114148 20 263 0.0 0.0 0.00 0.00 0.00 90 1009.0
20260905114109 20 263 0.0 0.0 0.00 0.00 0.00 90 1009.0
20260905114030 20 263 0.0 0.0 0.00 0.03 0.00 90 1009.1
20260905114009 20 263 0.0 0.0 0.00 0.00 0.00 90 1009.0
20260905113909 20 263 0.0 0.0 0.00 0.00 0.00 90 1009.0
20260905113808 20 263 0.0 0.0 0.00 0.00 0.00 91 1008.9
20260905113708 20 263 0.0 0.0 0.00 0.00 0.00 91 1009.0
20260905113647 20 263 0.0 0.0 0.00 0.00 0.00 91 1009.0
20260905113607 20 263 0.0 0.0 0.00 0.00 0.00 91 1009.0
20260905113530 20 263 0.0 0.0 0.00 0.03 0.00 91 1009.1
20260905113507 20 263 0.0 0.0 0.00 0.00 0.00 91 1009.0
20260905113407 20 263 0.0 0.0 0.00 0.00 0.00 91 1009.0
20260905113306 20 263 0.0 0.0 0.00 0.00 0.00 91 1009.0
20260905113205 20 263 0.0 0.0 0.00 0.00 0.00 91 1009.0
20260905113146 20 263 0.0 0.0 0.00 0.00 0.00 91 1009.0
20260905113126 20 263 0.0 0.0 0.00 0.00 0.00 92 1008.9
20260905113030 20 263 0.0 0.0 0.00 0.03 0.00 92 1009.0
20260905113013 20 263 0.0 0.0 0.00 0.00 0.00 92 1008.9
20260905112803 20 263 0.0 0.0 0.00 0.00 0.00 92 1008.9
20260905112703 20 263 0.0 0.0 0.00 0.00 0.00 92 1008.8
20260905112646 20 263 0.0 0.0 0.00 0.00 0.00 92 1008.8
20260905112602 20 263 0.0 0.0 0.00 0.00 0.00 92 1008.8
20260905112530 20 263 0.0 0.0 0.00 0.03 0.00 92 1008.8
20260905112502 20 263 0.0 0.0 0.00 0.00 0.00 92 1008.7
20260905112401 20 263 0.0 0.0 0.00 0.00 0.00 92 1008.7
20260905112300 20 263 0.0 0.0 0.00 0.00 0.00 92 1008.7
20260905112146 20 263 0.0 0.0 0.00 0.00 0.00 92 1008.7
20260905112059 20 263 0.0 0.0 0.00 0.00 0.00 92 1008.7
20260905112029 20 263 0.0 0.0 0.00 0.03 0.00 93 1008.8
20260905111959 20 263 0.0 0.0 0.00 0.00 0.00 93 1008.7
20260905111858 20 263 0.0 0.0 0.00 0.00 0.00 93 1008.7
20260905111812 20 263 0.0 0.0 0.00 0.00 0.00 93 1008.7
20260905111807 20 263 0.0 0.0 0.00 0.00 0.00 93 1008.7
20260905111644 20 263 0.0 0.0 0.00 0.00 0.00 93 1008.7
20260905111557 20 263 0.0 0.0 0.00 0.00 0.00 93 1008.7
20260905111530 20 263 0.0 0.0 0.00 0.03 0.00 93 1008.8
20260905111456 20 263 0.0 0.0 0.00 0.00 0.00 93 1008.7
20260905111356 20 263 0.0 0.0 0.00 0.00 0.00 93 1008.7
20260905111256 20 263 0.0 0.0 0.00 0.00 0.00 93 1008.7
20260905111142 20 263 0.0 0.0 0.00 0.00 0.00 93 1008.8
20260905111055 20 263 0.0 0.0 0.00 0.00 0.00 93 1008.7
20260905111030 20 263 0.0 0.0 0.00 0.03 0.00 93 1008.7
20260905111019 20 263 0.0 0.0 0.00 0.00 0.00 93 1008.7
20260905111015 20 263 0.0 0.0 0.00 0.00 0.00 94 1008.7
20260905111010 20 263 0.0 0.0 0.00 0.00 0.00 93 1008.7
20260905110641 20 263 0.0 0.0 0.00 0.00 0.00 94 1008.7
20260905110530 20 263 0.0 0.0 0.00 0.03 0.00 94 1008.8
20260905110450 20 263 0.0 0.0 0.00 0.00 0.00 94 1008.8
20260905110400 20 263 0.0 0.0 0.00 0.00 0.00 93 1008.7
20260905110350 20 263 0.0 0.0 0.00 0.00 0.00 93 1008.7
20260905110256 20 263 0.0 0.0 0.00 0.00 0.00 93 1008.8
20260905110247 20 263 0.0 0.0 0.00 0.00 0.00 93 1008.7
20260905110111 20 263 0.0 0.0 0.00 0.00 0.00 93 1008.7
20260905110029 20 263 0.0 0.0 0.00 0.03 0.00 93 1008.7
20260905105957 20 263 0.0 0.0 0.00 0.00 0.00 93 1008.7
20260905105747 20 263 0.0 0.0 0.00 0.00 0.00 94 1008.7
20260905105639 20 263 0.0 0.0 0.00 0.00 0.00 94 1008.7
20260905105546 20 263 0.0 0.0 0.00 0.00 0.00 94 1008.6
20260905105530 20 263 0.0 0.0 0.00 0.03 0.00 94 1008.7
20260905105446 20 263 0.0 0.0 0.00 0.00 0.00 94 1008.6
20260905105345 20 263 0.0 0.0 0.00 0.00 0.00 94 1008.6
20260905105259 20 263 0.0 0.0 0.00 0.00 0.00 94 1008.5
20260905105254 20 263 0.0 0.0 0.00 0.00 0.00 94 1008.5
20260905105138 20 263 0.0 0.0 0.00 0.00 0.00 94 1008.5
20260905105044 20 263 0.0 0.0 0.00 0.00 0.00 94 1008.5
20260905105030 20 263 0.0 0.0 0.00 0.03 0.00 94 1008.5
20260905104944 20 263 0.0 0.0 0.00 0.00 0.00 94 1008.4
20260905104844 20 263 0.0 0.0 0.00 0.00 0.00 94 1008.4
20260905104743 20 263 0.0 0.0 0.00 0.00 0.00 94 1008.4
20260905104638 20 263 0.0 0.0 0.00 0.00 0.00 94 1008.4
20260905104543 20 263 0.0 0.0 0.00 0.00 0.00 94 1008.3
20260905104530 20 263 0.0 0.0 0.00 0.03 0.00 94 1008.4
20260905104442 20 263 0.0 0.0 0.00 0.00 0.00 94 1008.3
20260905104342 20 263 0.0 0.0 0.00 0.00 0.00 94 1008.4
20260905104242 20 263 0.0 0.0 0.00 0.00 0.00 94 1008.3
20260905104137 20 263 0.0 0.0 0.00 0.00 0.00 94 1008.3
20260905104039 20 263 0.0 0.0 0.00 0.00 0.00 94 1008.3
20260905104030 20 263 0.0 0.0 0.00 0.03 0.00 94 1008.4
20260905103939 20 263 0.0 0.0 0.00 0.00 0.00 94 1008.3
20260905103839 20 263 0.0 0.0 0.00 0.00 0.00 94 1008.3
20260905103738 20 263 0.0 0.0 0.00 0.00 0.00 94 1008.3
20260905103639 20 263 0.0 0.0 0.00 0.00 0.00 94 1008.4
20260905103538 20 263 0.0 0.0 0.00 0.00 0.00 94 1008.3
20260905103530 20 263 0.0 0.0 0.00 0.03 0.00 94 1008.4
20260905103437 20 263 0.0 0.0 0.00 0.00 0.00 94 1008.3
20260905103337 20 263 0.0 0.0 0.00 0.00 0.00 94 1008.3
20260905103237 20 263 0.0 0.0 0.00 0.00 0.00 94 1008.2
20260905103139 20 263 0.0 0.0 0.00 0.00 0.00 94 1008.3
20260905103036 20 263 0.0 0.0 0.00 0.00 0.00 94 1008.2
20260905103030 20 263 0.0 0.0 0.00 0.03 0.00 94 1008.3
20260905102950 20 263 0.0 0.0 0.00 0.00 0.00 94 1008.2
20260905102945 20 263 0.0 0.0 0.00 0.00 0.00 94 1008.2
20260905102735 20 263 0.0 0.0 0.00 0.00 0.00 94 1008.1
20260905102636 20 263 0.0 0.0 0.00 0.00 0.00 94 1008.1
20260905102534 20 263 0.0 0.0 0.00 0.00 0.00 94 1008.1
20260905102530 20 263 0.0 0.0 0.00 0.03 0.00 94 1008.3
20260905102434 20 263 0.0 0.0 0.00 0.00 0.00 94 1008.2
20260905102334 20 263 0.0 0.0 0.00 0.00 0.00 94 1008.2
20260905102232 20 263 0.0 0.0 0.00 0.00 0.00 94 1008.2
20260905102152 20 263 0.0 0.0 0.00 0.00 0.00 94 1008.1
20260905102141 20 263 0.0 0.0 0.00 0.00 0.00 94 1008.2
20260905102030 20 263 0.0 0.0 0.00 0.03 0.00 94 1008.3
20260905101932 20 263 0.0 0.0 0.00 0.00 0.00 94 1008.2
20260905101831 20 263 0.0 0.0 0.00 0.00 0.00 94 1008.1
20260905101731 20 263 0.0 0.0 0.00 0.00 0.00 94 1008.1
20260905101630 20 263 0.0 0.0 0.00 0.00 0.00 94 1008.1
20260905101544 20 263 0.0 0.0 0.00 0.03 0.00 93 1008.2
20260905101530 20 263 0.0 0.0 0.00 0.00 0.00 93 1008.1
20260905101430 20 263 0.0 0.0 0.00 0.00 0.00 93 1008.1
20260905101328 20 263 0.0 0.0 0.00 0.00 0.00 93 1008.1
20260905101229 20 263 0.0 0.0 0.00 0.00 0.00 93 1008.1
20260905101127 20 263 0.0 0.0 0.00 0.00 0.00 93 1008.1
20260905101030 20 263 0.0 0.0 0.00 0.03 0.00 93 1008.3
20260905101027 20 263 0.0 0.0 0.00 0.00 0.00 93 1008.2
20260905100941 20 263 0.0 0.0 0.00 0.00 0.00 93 1008.1
20260905100936 20 263 0.0 0.0 0.00 0.00 0.00 93 1008.2
20260905100726 20 263 0.0 0.0 0.00 0.00 0.00 93 1008.1
20260905100626 20 263 0.0 0.0 0.00 0.00 0.00 93 1008.1
20260905100530 20 263 0.0 0.0 0.00 0.03 0.00 93 1008.2
20260905100526 20 263 0.0 0.0 0.00 0.00 0.00 93 1008.1
20260905100425 20 263 0.0 0.0 0.00 0.00 0.00 93 1008.1
20260905100325 20 263 0.0 0.0 0.00 0.00 0.00 93 1008.1
20260905100250 20 263 0.0 0.0 0.00 0.00 0.00 94 1008.1
20260905100131 20 263 0.0 0.0 0.00 0.00 0.00 94 1008.1
20260905100029 20 263 0.0 0.0 0.00 0.03 0.00 94 1008.2
20260905095920 20 263 0.0 0.0 0.00 0.00 0.00 94 1008.1
20260905095819 20 263 0.0 0.0 0.00 0.00 0.00 94 1008.1
20260905095719 20 263 0.0 0.0 0.00 0.00 0.00 94 1008.1
20260905095618 20 263 0.0 0.0 0.00 0.00 0.00 94 1008.1
20260905095529 20 263 0.0 0.0 0.00 0.03 0.00 94 1008.2
20260905095518 20 263 0.0 0.0 0.00 0.00 0.00 94 1008.1
20260905095417 20 263 0.0 0.0 0.00 0.00 0.00 94 1008.1
20260905095317 20 263 0.0 0.0 0.00 0.00 0.00 94 1008.1
20260905095215 20 263 0.0 0.0 0.00 0.00 0.00 94 1008.1
20260905095116 20 263 0.0 0.0 0.00 0.00 0.00 94 1008.1
20260905095030 20 263 0.0 0.0 0.00 0.03 0.00 94 1008.2
20260905095017 20 263 0.0 0.0 0.00 0.00 0.00 94 1008.1
20260905094913 20 263 0.0 0.0 0.00 0.00 0.00 94 1008.1
20260905094813 20 263 0.0 0.0 0.00 0.00 0.00 94 1008.1
20260905094713 20 263 0.0 0.0 0.00 0.00 0.00 94 1008.1
20260905094634 20 263 0.0 0.0 0.00 0.00 0.00 94 1008.1
20260905094530 20 263 0.0 0.0 0.00 0.03 0.00 94 1008.2
20260905094520 20 263 0.0 0.0 0.00 0.00 0.00 94 1008.2
20260905094335 20 263 0.0 0.0 0.00 0.00 0.00 94 1008.1
20260905094222 20 263 0.0 0.0 0.00 0.00 0.00 94 1008.1
20260905094214 20 263 0.0 0.0 0.00 0.00 0.00 94 1008.1
20260905094100 20 263 0.0 0.0 0.00 0.03 0.00 94 1008.1
20260905094007 20 263 0.0 0.0 0.00 0.00 0.00 94 1008.1
20260905093906 20 263 0.0 0.0 0.00 0.00 0.00 94 1008.0
20260905093807 20 263 0.0 0.0 0.00 0.00 0.00 94 1008.0
20260905093707 20 263 0.0 0.0 0.00 0.00 0.00 94 1008.0
20260905093606 20 263 0.0 0.0 0.00 0.00 0.00 94 1008.0
20260905093530 20 263 0.0 0.0 0.00 0.03 0.00 94 1008.1
20260905093505 20 263 0.0 0.0 0.00 0.00 0.00 94 1008.0
20260905093406 20 263 0.0 0.0 0.00 0.00 0.00 94 1008.0
20260905093303 20 263 0.0 0.0 0.00 0.00 0.00 94 1008.0
20260905093232 20 263 0.0 0.0 0.00 0.00 0.00 94 1008.1
20260905093226 20 263 0.0 0.0 0.00 0.00 0.00 94 1008.0
20260905093218 20 263 0.0 0.0 0.00 0.00 0.00 94 1008.0
20260905093030 20 263 0.0 0.0 0.00 0.03 0.00 94 1008.2
20260905092902 20 263 0.0 0.0 0.00 0.00 0.00 94 1008.0
20260905092802 20 263 0.0 0.0 0.00 0.00 0.00 94 1008.0
20260905092700 20 263 0.0 0.0 0.00 0.00 0.00 94 1008.0
20260905092625 20 263 0.0 0.0 0.00 0.00 0.00 94 1008.0
20260905092559 20 263 0.0 0.0 0.00 0.00 0.00 94 1008.0
20260905092530 20 263 0.0 0.0 0.00 0.03 0.00 94 1008.1
20260905092458 20 263 0.0 0.0 0.00 0.00 0.00 94 1008.0
20260905092358 20 263 0.0 0.0 0.00 0.00 0.00 94 1008.0
20260905092258 20 263 0.0 0.0 0.00 0.00 0.00 94 1008.0
20260905092217 20 263 0.0 0.0 0.00 0.00 0.00 94 1008.0
20260905092203 20 263 0.0 0.0 0.00 0.00 0.00 94 1008.0
20260905092030 20 263 0.0 0.0 0.00 0.03 0.00 94 1008.1
20260905091956 20 263 0.0 0.0 0.00 0.00 0.00 94 1008.0
20260905091856 20 263 0.0 0.0 0.00 0.00 0.00 94 1008.0
20260905091844 20 263 0.0 0.0 0.00 0.00 0.00 94 1008.0
20260905091756 20 263 0.0 0.0 0.00 0.00 0.00 94 1008.0
20260905091732 20 263 0.0 0.0 0.00 0.00 0.00 94 1008.0
20260905091554 20 263 0.0 0.0 0.00 0.00 0.00 94 1008.0
20260905091530 20 263 0.0 0.0 0.00 0.03 0.00 94 1008.1
20260905091455 20 263 0.0 0.0 0.00 0.00 0.00 94 1008.0
20260905091355 20 263 0.0 0.0 0.00 0.00 0.00 94 1008.0
20260905091253 20 263 0.0 0.0 0.00 0.00 0.00 94 1008.0
20260905091153 20 263 0.0 0.0 0.00 0.00 0.00 94 1008.0
20260905091122 20 263 0.0 0.0 0.00 0.00 0.00 94 1008.0
20260905091053 20 263 0.0 0.0 0.00 0.00 0.00 94 1008.0
20260905091030 20 263 0.0 0.0 0.00 0.03 0.00 95 1008.1
20260905090952 20 263 0.0 0.0 0.00 0.00 0.00 95 1008.0
20260905090852 20 263 0.0 0.0 0.00 0.00 0.00 94 1008.0
20260905090750 20 263 0.0 0.0 0.00 0.00 0.00 94 1008.0
20260905090621 20 263 0.0 0.0 0.00 0.00 0.00 95 1008.0
20260905090604 20 263 0.0 0.0 0.00 0.00 0.00 95 1008.0
20260905090559 20 263 0.0 0.0 0.00 0.00 0.00 95 1008.0
20260905090530 20 263 0.0 0.0 0.00 0.03 0.00 95 1008.1
20260905090349 20 263 0.0 0.0 0.00 0.00 0.00 95 1008.0
20260905090249 20 263 0.0 0.0 0.00 0.00 0.00 95 1008.0
20260905090119 20 263 0.0 0.0 0.00 0.00 0.00 95 1008.0
20260905090048 20 263 0.0 0.0 0.00 0.00 0.00 95 1008.0
20260905090031 20 263 0.0 0.0 0.00 0.03 0.00 95 1008.1
20260905085947 20 263 0.0 0.0 0.00 0.00 0.00 95 1008.0
20260905085846 20 263 0.0 0.0 0.00 0.00 0.00 95 1008.0
20260905085745 20 263 0.0 0.0 0.00 0.00 0.00 95 1008.0
20260905085619 20 263 0.0 0.0 0.00 0.00 0.00 95 1008.0
20260905085546 20 263 0.0 0.0 0.00 0.00 0.00 95 1008.0
20260905085530 20 263 0.0 0.0 0.00 0.03 0.00 95 1008.0
20260905085446 20 263 0.0 0.0 0.00 0.00 0.00 95 1007.9
20260905085348 20 263 0.0 0.0 0.00 0.00 0.00 95 1007.9
20260905085342 20 263 0.0 0.0 0.00 0.00 0.00 95 1007.9
20260905085243 20 263 0.0 0.0 0.00 0.00 0.00 95 1007.9
20260905085226 20 263 0.0 0.0 0.00 0.00 0.00 95 1007.9
20260905085055 20 263 0.0 0.0 0.00 0.00 0.00 95 1007.9
20260905085051 20 263 0.0 0.0 0.00 0.00 0.00 95 1007.9
20260905085030 20 263 0.0 0.0 0.00 0.03 0.00 95 1008.0
20260905084854 20 263 0.0 0.0 0.00 0.00 0.00 95 1007.9
20260905084850 20 263 0.0 0.0 0.00 0.00 0.00 95 1007.9
20260905084616 20 263 0.0 0.0 0.00 0.00 0.00 95 1007.8
20260905084540 20 263 0.0 0.0 0.00 0.00 0.00 95 1007.8
20260905084530 20 263 0.0 0.0 0.00 0.03 0.00 95 1008.0
20260905084439 20 263 0.0 0.0 0.00 0.00 0.00 95 1007.9
20260905084338 20 263 0.0 0.0 0.00 0.00 0.00 95 1007.9
20260905084238 20 263 0.0 0.0 0.00 0.00 0.00 95 1007.8
20260905084116 20 263 0.0 0.0 0.00 0.00 0.00 95 1007.8
20260905084036 20 263 0.0 0.0 0.00 0.00 0.00 95 1007.9
20260905084030 20 263 0.0 0.0 0.00 0.03 0.00 95 1008.0
20260905083949 20 263 0.0 0.0 0.00 0.00 0.00 95 1007.9
20260905083944 20 263 0.0 0.0 0.00 0.00 0.00 95 1007.9
20260905083733 20 263 0.0 0.0 0.00 0.00 0.00 95 1007.9
20260905083615 20 263 0.0 0.0 0.00 0.00 0.00 95 1007.9
20260905083533 20 263 0.0 0.0 0.00 0.00 0.00 95 1007.9
20260905083530 20 263 0.0 0.0 0.00 0.03 0.00 95 1008.0
20260905083433 20 263 0.0 0.0 0.00 0.00 0.00 95 1007.9
20260905083332 20 263 0.0 0.0 0.00 0.00 0.00 95 1007.9
20260905083232 20 263 0.0 0.0 0.00 0.00 0.00 95 1007.9
20260905083113 20 263 0.0 0.0 0.00 0.00 0.00 95 1008.0
20260905083045 20 263 0.0 0.0 0.00 0.03 0.00 95 1008.0
20260905083030 20 263 0.0 0.0 0.00 0.00 0.00 95 1007.9
20260905082930 20 263 0.0 0.0 0.00 0.00 0.00 95 1007.9
20260905082830 20 263 0.0 0.0 0.00 0.00 0.00 95 1007.9
20260905082729 20 263 0.0 0.0 0.00 0.00 0.00 95 1007.9
20260905082611 20 263 0.0 0.0 0.00 0.00 0.00 95 1007.9
20260905082530 20 263 0.0 0.0 0.00 0.03 0.00 95 1008.0
20260905082528 20 263 0.0 0.0 0.00 0.00 0.00 95 1007.9
20260905082428 20 263 0.0 0.0 0.00 0.00 0.00 95 1007.9
20260905082328 20 263 0.0 0.0 0.00 0.00 0.00 95 1007.8
20260905082228 20 263 0.0 0.0 0.00 0.00 0.00 95 1007.8
20260905082146 20 263 0.0 0.0 0.00 0.00 0.00 95 1007.9
20260905082133 20 263 0.0 0.0 0.00 0.00 0.00 95 1007.9
20260905082030 21 263 0.0 0.0 0.00 0.03 0.00 95 1008.0
20260905081951 20 263 0.0 0.0 0.00 0.00 0.00 95 1007.9
20260905081947 20 263 0.0 0.0 0.00 0.00 0.00 95 1007.9
20260905081942 20 263 0.0 0.0 0.00 0.00 0.00 95 1007.9
20260905081643 21 263 0.0 0.0 0.00 0.00 0.00 95 1007.9
20260905081631 20 263 0.0 0.0 0.00 0.00 0.00 95 1008.0
20260905081530 21 263 0.0 0.0 0.00 0.03 0.00 95 1008.0
20260905081436 21 263 0.0 0.0 0.00 0.00 0.00 95 1007.9
20260905081432 20 263 0.0 0.0 0.00 0.00 0.00 95 1007.9
20260905081223 21 263 0.0 0.0 0.00 0.00 0.00 95 1007.9
20260905081140 21 263 0.0 0.0 0.00 0.00 0.00 95 1008.0
20260905081128 21 263 0.0 0.0 0.00 0.00 0.00 95 1007.9
20260905081030 21 263 0.0 0.0 0.00 0.03 0.00 95 1008.1
20260905080921 21 263 0.0 0.0 0.00 0.00 0.00 95 1008.0
20260905080821 21 263 0.0 0.0 0.00 0.00 0.00 95 1007.9
20260905080721 21 263 0.0 0.0 0.00 0.00 0.00 95 1008.0
20260905080608 21 263 0.0 0.0 0.00 0.00 0.00 95 1007.9
20260905080555 21 263 0.0 0.0 0.00 0.00 0.00 95 1007.9
20260905080545 21 263 0.0 0.0 0.00 0.03 0.00 95 1008.0
20260905080443 21 263 0.0 0.0 0.00 0.00 0.00 95 1007.9
20260905080437 21 263 0.0 0.0 0.00 0.00 0.00 95 1007.9
20260905080107 21 263 0.0 0.0 0.00 0.00 0.00 95 1007.9
20260905080030 21 263 0.0 0.0 0.00 0.03 0.00 95 1008.0
20260905080018 21 263 0.0 0.0 0.00 0.00 0.00 95 1007.9
20260905075918 21 263 0.0 0.0 0.00 0.00 0.00 95 1007.9
20260905075816 21 263 0.0 0.0 0.00 0.00 0.00 95 1007.9
20260905075716 21 263 0.0 0.0 0.00 0.00 0.00 95 1007.9
20260905075607 21 263 0.0 0.0 0.00 0.00 0.00 95 1007.9
20260905075530 21 263 0.0 0.0 0.00 0.03 0.00 95 1008.0
20260905075514 21 263 0.0 0.0 0.00 0.00 0.00 95 1007.9
20260905075413 21 263 0.0 0.0 0.00 0.00 0.00 95 1007.9
20260905075326 21 263 0.0 0.0 0.00 0.00 0.00 95 1007.9
20260905075322 21 263 0.0 0.0 0.00 0.00 0.00 95 1007.9
20260905075103 21 263 0.0 0.0 0.00 0.00 0.00 95 1007.9
20260905075030 21 263 0.0 0.0 0.00 0.03 0.00 95 1008.0
20260905075011 21 263 0.0 0.0 0.00 0.00 0.00 95 1007.9
20260905074929 21 263 0.0 0.0 0.00 0.00 0.00 95 1007.9
20260905074911 21 263 0.0 0.0 0.00 0.00 0.00 95 1007.9
20260905074837 21 263 0.0 0.0 0.00 0.00 0.00 95 1007.9
20260905074833 21 263 0.0 0.0 0.00 0.00 0.00 95 1008.0
20260905074828 21 263 0.0 0.0 0.00 0.00 0.00 95 1007.9
20260905074819 21 263 0.0 0.0 0.00 0.00 0.00 95 1007.9
20260905074810 21 263 0.0 0.0 0.00 0.00 0.00 95 1007.9
20260905074552 20 263 0.0 0.0 0.00 0.00 0.00 95 1008.0
20260905074547 21 263 0.0 0.0 0.00 0.00 0.00 95 1007.9
20260905074530 21 263 0.0 0.0 0.00 0.03 0.00 95 1008.0
20260905074319 21 263 0.0 0.0 0.00 0.00 0.00 95 1008.0
20260905074030 21 263 0.0 0.0 0.00 0.03 0.00 95 1008.1
20260905074019 20 263 0.0 0.0 0.00 0.00 0.00 95 1008.0
20260905074015 20 263 0.0 0.0 0.00 0.00 0.00 95 1008.0
20260905073805 20 263 0.0 0.0 0.00 0.00 0.00 95 1008.0
20260905073705 20 263 0.0 0.0 0.00 0.00 0.00 95 1008.0
20260905073602 20 263 0.0 0.0 0.00 0.00 0.00 95 1007.9
20260905073554 20 263 0.0 0.0 0.00 0.00 0.00 95 1007.9
20260905073545 21 263 0.0 0.0 0.00 0.03 0.00 95 1008.0
20260905073441 20 263 0.0 0.0 0.00 0.00 0.00 95 1007.9
20260905073327 20 263 0.0 0.0 0.00 0.00 0.00 95 1007.9
20260905073105 20 263 0.0 0.0 0.00 0.00 0.00 95 1007.9
20260905073030 21 263 0.0 0.0 0.00 0.03 0.00 95 1008.0
20260905073002 20 263 0.0 0.0 0.00 0.00 0.00 95 1007.9
20260905072902 20 263 0.0 0.0 0.00 0.00 0.00 95 1007.9
20260905072801 20 263 0.0 0.0 0.00 0.00 0.00 95 1007.9
20260905072723 20 263 0.0 0.0 0.00 0.00 0.00 95 1007.9
20260905072717 20 263 0.0 0.0 0.00 0.00 0.00 95 1008.0
20260905072604 20 263 0.0 0.0 0.00 0.00 0.00 95 1007.9
20260905072530 21 263 0.0 0.0 0.00 0.03 0.00 95 1008.0
20260905072502 20 263 0.0 0.0 0.00 0.00 0.00 95 1007.9
20260905072402 20 263 0.0 0.0 0.00 0.00 0.00 95 1007.9
20260905072315 20 263 0.0 0.0 0.00 0.00 0.00 95 1007.9
20260905072310 20 263 0.0 0.0 0.00 0.00 0.00 95 1008.0
20260905072103 20 263 0.0 0.0 0.00 0.00 0.00 95 1007.9
20260905072030 21 263 0.0 0.0 0.00 0.03 0.00 95 1008.0
20260905072014 21 263 0.0 0.0 0.00 0.00 0.00 95 1007.9
20260905072010 21 263 0.0 0.0 0.00 0.00 0.00 95 1007.9
20260905071802 20 263 0.0 0.0 0.00 0.00 0.00 95 1008.0
20260905071701 21 263 0.0 0.0 0.00 0.00 0.00 95 1008.0
20260905071602 20 263 0.0 0.0 0.00 0.00 0.00 95 1008.0
20260905071529 21 263 0.0 0.0 0.00 0.03 0.00 95 1008.1
20260905071501 21 263 0.0 0.0 0.00 0.00 0.00 95 1008.0
20260905071416 21 263 0.0 0.0 0.00 0.00 0.00 95 1008.0
20260905071411 21 263 0.0 0.0 0.00 0.00 0.00 95 1008.0
20260905071201 21 263 0.0 0.0 0.00 0.00 0.00 95 1008.0
20260905071103 21 263 0.0 0.0 0.00 0.00 0.00 95 1008.0
20260905071031 21 263 0.0 0.0 0.00 0.03 0.00 95 1008.1
20260905071001 21 263 0.0 0.0 0.00 0.00 0.00 95 1008.0
20260905070859 21 263 0.0 0.0 0.00 0.00 0.00 95 1008.0
20260905070759 21 263 0.0 0.0 0.00 0.00 0.00 95 1008.0
20260905070659 21 263 0.0 0.0 0.00 0.00 0.00 95 1008.0
20260905070619 21 263 0.0 0.0 0.00 0.00 0.00 95 1008.1
20260905070610 21 263 0.0 0.0 0.00 0.00 0.00 94 1008.0
20260905070600 21 263 0.0 0.0 0.00 0.03 0.00 95 1008.2
20260905070358 21 263 0.0 0.0 0.00 0.00 0.00 94 1008.0
20260905070258 21 263 0.0 0.0 0.00 0.00 0.00 95 1008.1
20260905070158 21 263 0.0 0.0 0.00 0.00 0.00 95 1008.1
20260905070059 21 263 0.0 0.0 0.00 0.00 0.00 94 1008.0
20260905070030 21 263 0.0 0.0 0.00 0.03 0.00 94 1008.1
20260905070024 21 263 0.0 0.0 0.00 0.00 0.00 94 1008.0
20260905070020 21 263 0.0 0.0 0.00 0.00 0.00 94 1008.0
20260905070014 21 263 0.0 0.0 0.00 0.00 0.00 94 1008.0
20260905065656 21 263 0.0 0.0 0.00 0.00 0.00 94 1008.0
20260905065614 21 263 0.0 0.0 0.00 0.00 0.00 94 1008.0
20260905065605 21 263 0.0 0.0 0.00 0.00 0.00 94 1008.0
20260905065530 21 263 0.0 0.0 0.00 0.03 0.00 94 1008.1
20260905065409 21 263 0.0 0.0 0.00 0.00 0.00 94 1008.1
20260905065404 21 263 0.0 0.0 0.00 0.00 0.00 94 1008.1
20260905065153 21 263 0.0 0.0 0.00 0.00 0.00 94 1008.1
20260905065055 21 263 0.0 0.0 0.00 0.00 0.00 94 1008.1
20260905065045 21 263 0.0 0.0 0.00 0.03 0.00 94 1008.2
20260905064953 21 263 0.0 0.0 0.00 0.00 0.00 94 1008.1
20260905064853 21 263 0.0 0.0 0.00 0.00 0.00 94 1008.1
20260905064752 21 263 0.0 0.0 0.00 0.00 0.00 94 1008.1
20260905064652 21 263 0.0 0.0 0.00 0.00 0.00 94 1008.1
20260905064609 21 263 0.0 0.0 0.00 0.00 0.00 94 1008.1
20260905064600 21 263 0.0 0.0 0.00 0.03 0.00 94 1008.2
20260905064452 21 263 0.0 0.0 0.00 0.00 0.00 94 1008.1
20260905064408 21 263 0.0 0.0 0.00 0.00 0.00 94 1008.1
20260905064404 21 263 0.0 0.0 0.00 0.00 0.00 94 1008.2
20260905064358 21 263 0.0 0.0 0.00 0.00 0.00 94 1008.1
20260905064217 21 263 0.0 0.0 0.00 0.00 0.00 94 1008.1
20260905064211 21 263 0.0 0.0 0.00 0.00 0.00 94 1008.1
20260905064056 21 263 0.0 0.0 0.00 0.00 0.00 94 1008.2
20260905064045 21 263 0.0 0.0 0.00 0.03 0.00 94 1008.2
20260905063847 21 263 0.0 0.0 0.00 0.00 0.00 94 1008.2
20260905063747 21 263 0.0 0.0 0.00 0.00 0.00 94 1008.2
20260905063646 21 263 0.0 0.0 0.00 0.00 0.00 94 1008.2
20260905063546 21 263 0.0 0.0 0.00 0.00 0.00 94 1008.3
20260905063445 21 263 0.0 0.0 0.00 0.00 0.00 94 1008.4
20260905063345 21 263 0.0 0.0 0.00 0.00 0.00 94 1008.3
20260905063245 21 263 0.0 0.0 0.00 0.00 0.00 94 1008.3
20260905063158 21 263 0.0 0.0 0.00 0.00 0.00 94 1008.3
20260905063149 21 263 0.0 0.0 0.00 0.00 0.00 94 1008.3
20260905063045 21 263 0.0 0.0 0.00 0.03 0.00 94 1008.4
20260905062943 21 263 0.0 0.0 0.00 0.00 0.00 94 1008.3
20260905062843 21 263 0.0 0.0 0.00 0.00 0.00 94 1008.3
20260905062742 21 263 0.0 0.0 0.00 0.00 0.00 94 1008.3
20260905062641 21 263 0.0 0.0 0.00 0.00 0.00 94 1008.3
20260905062545 21 263 0.0 0.0 0.00 0.03 0.00 94 1008.4
20260905062541 21 263 0.0 0.0 0.00 0.00 0.00 94 1008.3
20260905062440 21 263 0.0 0.0 0.00 0.00 0.00 94 1008.3
20260905062340 21 263 0.0 0.0 0.00 0.00 0.00 94 1008.4
20260905062252 21 263 0.0 0.0 0.00 0.00 0.00 94 1008.3
20260905062246 21 263 0.0 0.0 0.00 0.00 0.00 94 1008.3
20260905062037 21 263 0.0 0.0 0.00 0.00 0.00 94 1008.3
20260905062030 21 263 0.0 0.0 0.00 0.03 0.00 94 1008.4
20260905061936 21 263 0.0 0.0 0.00 0.00 0.00 94 1008.3
20260905061837 21 263 0.0 0.0 0.00 0.00 0.00 94 1008.3
20260905061802 21 263 0.0 0.0 0.00 0.00 0.00 94 1008.2
20260905061737 21 263 0.0 0.0 0.00 0.00 0.00 94 1008.3
20260905061653 21 263 0.0 0.0 0.00 0.00 0.00 94 1008.3
20260905061537 21 263 0.0 0.0 0.00 0.00 0.00 94 1008.2
20260905061530 21 263 0.0 0.0 0.00 0.03 0.00 93 1008.3
20260905061451 21 263 0.0 0.0 0.00 0.00 0.00 93 1008.2
20260905061446 21 263 0.0 0.0 0.00 0.00 0.00 93 1008.2
20260905061236 21 263 0.0 0.0 0.00 0.00 0.00 93 1008.2
20260905061149 21 263 0.0 0.0 0.00 0.00 0.00 93 1008.2
20260905061141 21 263 0.0 0.0 0.00 0.00 0.00 93 1008.2
20260905061030 21 263 0.0 0.0 0.00 0.03 0.00 93 1008.3
20260905060947 21 263 0.0 0.0 0.00 0.00 0.00 93 1008.2
20260905060942 21 263 0.0 0.0 0.00 0.00 0.00 93 1008.2
20260905060732 21 263 0.0 0.0 0.00 0.00 0.00 93 1008.2
20260905060632 21 263 0.0 0.0 0.00 0.00 0.00 93 1008.2
20260905060531 21 263 0.0 0.0 0.00 0.00 0.00 93 1008.2
20260905060431 21 263 0.0 0.0 0.00 0.00 0.00 94 1008.3
20260905060413 21 263 0.0 0.0 0.00 0.00 0.00 93 1008.2
20260905060407 21 263 0.0 0.0 0.00 0.00 0.00 93 1008.2
20260905060253 21 263 0.0 0.0 0.00 0.00 0.00 93 1008.3
20260905060244 21 263 0.0 0.0 0.00 0.00 0.00 93 1008.2
20260905060030 21 263 0.0 0.0 0.00 0.03 0.00 93 1008.3
20260905055928 21 263 0.0 0.0 0.00 0.00 0.00 93 1008.2
20260905055827 21 263 0.0 0.0 0.00 0.00 0.00 93 1008.3
20260905055726 21 263 0.0 0.0 0.00 0.00 0.00 93 1008.2
20260905055626 21 263 0.0 0.0 0.00 0.00 0.00 93 1008.2
20260905055530 21 263 0.0 0.0 0.00 0.03 0.00 93 1008.3
20260905055526 21 263 0.0 0.0 0.00 0.00 0.00 93 1008.2
20260905055425 21 263 0.0 0.0 0.00 0.00 0.00 93 1008.2
20260905055325 21 263 0.0 0.0 0.00 0.00 0.00 93 1008.3
20260905055225 21 263 0.0 0.0 0.00 0.00 0.00 93 1008.3
20260905055123 21 263 0.0 0.0 0.00 0.00 0.00 93 1008.3
20260905055030 21 263 0.0 0.0 0.00 0.03 0.00 93 1008.4
20260905055024 21 263 0.0 0.0 0.00 0.00 0.00 93 1008.2
20260905054922 21 263 0.0 0.0 0.00 0.00 0.00 93 1008.3
20260905054822 21 263 0.0 0.0 0.00 0.00 0.00 93 1008.2
20260905054722 21 263 0.0 0.0 0.00 0.00 0.00 93 1008.3
20260905054622 21 263 0.0 0.0 0.00 0.00 0.00 93 1008.2
20260905054530 21 263 0.0 0.0 0.00 0.03 0.00 93 1008.4
20260905054521 21 263 0.0 0.0 0.00 0.00 0.00 93 1008.3
20260905054421 21 263 0.0 0.0 0.00 0.00 0.00 93 1008.3
20260905054321 21 263 0.0 0.0 0.00 0.00 0.00 93 1008.3
20260905054220 21 263 0.0 0.0 0.00 0.00 0.00 93 1008.2
20260905054120 21 263 0.0 0.0 0.00 0.00 0.00 93 1008.3
20260905054030 21 263 0.0 0.0 0.00 0.03 0.00 93 1008.4
20260905054020 21 263 0.0 0.0 0.00 0.00 0.00 93 1008.3
20260905053919 21 263 0.0 0.0 0.00 0.00 0.00 93 1008.3
20260905053819 21 263 0.0 0.0 0.00 0.00 0.00 93 1008.3
20260905053718 21 263 0.0 0.0 0.00 0.00 0.00 93 1008.3
20260905053618 21 263 0.0 0.0 0.00 0.00 0.00 93 1008.3
20260905053530 22 263 0.0 0.0 0.00 0.03 0.00 93 1008.4
20260905053518 22 263 0.0 0.0 0.00 0.00 0.00 93 1008.3
20260905053417 22 263 0.0 0.0 0.00 0.00 0.00 93 1008.3
20260905053317 22 263 0.0 0.0 0.00 0.00 0.00 93 1008.3
20260905053216 22 263 0.0 0.0 0.00 0.00 0.00 92 1008.3
20260905053116 22 263 0.0 0.0 0.00 0.00 0.00 92 1008.4
20260905053030 22 263 0.0 0.0 0.00 0.03 0.00 92 1008.5
20260905053015 22 263 0.0 0.0 0.00 0.00 0.00 92 1008.4
20260905052915 22 263 0.0 0.0 0.00 0.00 0.00 92 1008.4
20260905052815 22 263 0.0 0.0 0.00 0.00 0.00 92 1008.4
20260905052754 22 263 0.0 0.0 0.00 0.00 0.00 92 1008.5
20260905052713 22 263 0.0 0.0 0.00 0.00 0.00 92 1008.4
20260905052637 22 263 0.0 0.0 0.00 0.00 0.00 92 1008.5
20260905052530 22 263 0.0 0.0 0.00 0.03 0.00 92 1008.7
20260905052513 22 263 0.0 0.0 0.00 0.00 0.00 92 1008.5
20260905052412 22 263 0.0 0.0 0.00 0.00 0.00 92 1008.6
20260905052311 22 263 0.0 0.0 0.00 0.00 0.00 92 1008.6
20260905052211 22 263 0.0 0.0 0.00 0.00 0.00 92 1008.6
20260905052111 22 263 0.0 0.0 0.00 0.00 0.00 92 1008.6
20260905052045 22 263 0.0 0.0 0.00 0.03 0.00 92 1008.7
20260905052010 22 263 0.0 0.0 0.00 0.00 0.00 92 1008.6
20260905051909 22 263 0.0 0.0 0.00 0.00 0.00 92 1008.6
20260905051809 22 263 0.0 0.0 0.00 0.00 0.00 92 1008.6
20260905051708 22 263 0.0 0.0 0.00 0.00 0.00 92 1008.6
20260905051608 22 263 0.0 0.0 0.00 0.00 0.00 92 1008.6
20260905051545 22 263 0.0 0.0 0.00 0.03 0.00 92 1008.7
20260905051529 22 263 0.0 0.0 0.00 0.00 0.00 92 1008.6
20260905051416 22 263 0.0 0.0 0.00 0.00 0.00 92 1008.6
20260905051206 22 263 0.0 0.0 0.00 0.00 0.00 92 1008.6
20260905051106 22 263 0.0 0.0 0.00 0.00 0.00 92 1008.6
20260905051030 22 263 0.0 0.0 0.00 0.03 0.00 92 1008.7
20260905051003 22 263 0.0 0.0 0.00 0.00 0.00 92 1008.6
20260905050917 22 263 0.0 0.0 0.00 0.00 0.00 92 1008.6
20260905050911 22 263 0.0 0.0 0.00 0.00 0.00 92 1008.6
20260905050702 22 263 0.0 0.0 0.00 0.00 0.00 92 1008.6
20260905050603 22 263 0.0 0.0 0.00 0.00 0.00 92 1008.7
20260905050530 22 263 0.0 0.0 0.00 0.03 0.00 92 1008.9
20260905050523 22 263 0.0 0.0 0.00 0.00 0.00 92 1008.7
20260905050501 22 263 0.0 0.0 0.00 0.00 0.00 92 1008.7
20260905050416 22 263 0.0 0.0 0.00 0.00 0.00 92 1008.7
20260905050411 22 263 0.0 0.0 0.00 0.00 0.00 92 1008.7
20260905050201 22 263 0.0 0.0 0.00 0.00 0.00 92 1008.7
20260905050045 22 263 0.0 0.0 0.00 0.03 0.00 92 1008.9
20260905050022 22 263 0.0 0.0 0.00 0.00 0.00 92 1008.7
20260905050002 22 263 0.0 0.0 0.00 0.00 0.00 92 1008.7
20260905045900 22 263 0.0 0.0 0.00 0.00 0.00 92 1008.6
20260905045800 22 263 0.0 0.0 0.00 0.00 0.00 92 1008.6
20260905045712 22 263 0.0 0.0 0.00 0.00 0.00 92 1008.5
20260905045707 22 263 0.0 0.0 0.00 0.00 0.00 92 1008.6
20260905045530 22 263 0.0 0.0 0.00 0.03 0.00 92 1008.6
20260905045523 22 263 0.0 0.0 0.00 0.00 0.00 92 1008.5
20260905045457 22 263 0.0 0.0 0.00 0.00 0.00 92 1008.5
20260905045356 22 263 0.0 0.0 0.00 0.00 0.00 92 1008.5
20260905045255 22 263 0.0 0.0 0.00 0.00 0.00 92 1008.5
20260905045155 22 263 0.0 0.0 0.00 0.00 0.00 92 1008.6
20260905045055 22 263 0.0 0.0 0.00 0.00 0.00 92 1008.6
20260905045030 22 263 0.0 0.0 0.00 0.03 0.00 91 1008.7
20260905045021 22 263 0.0 0.0 0.00 0.00 0.00 91 1008.6
20260905044953 22 263 0.0 0.0 0.00 0.00 0.00 91 1008.6
20260905044852 22 263 0.0 0.0 0.00 0.00 0.00 91 1008.6
20260905044752 22 263 0.0 0.0 0.00 0.00 0.00 91 1008.6
20260905044741 22 263 0.0 0.0 0.00 0.00 0.00 91 1008.6
20260905044652 22 263 0.0 0.0 0.00 0.00 0.00 91 1008.6
20260905044628 22 263 0.0 0.0 0.00 0.00 0.00 91 1008.6
20260905044530 22 263 0.0 0.0 0.00 0.03 0.00 91 1008.7
20260905044450 22 263 0.0 0.0 0.00 0.00 0.00 91 1008.6
20260905044350 22 263 0.0 0.0 0.00 0.00 0.00 91 1008.7
20260905044249 22 263 0.0 0.0 0.00 0.00 0.00 91 1008.7
20260905044149 22 263 0.0 0.0 0.00 0.00 0.00 91 1008.7
20260905044030 22 263 0.0 0.0 0.00 0.03 0.00 91 1008.8
20260905044020 22 263 0.0 0.0 0.00 0.00 0.00 91 1008.7
20260905043948 22 263 0.0 0.0 0.00 0.00 0.00 91 1008.7
20260905043847 22 263 0.0 0.0 0.00 0.00 0.00 91 1008.7
20260905043802 22 263 0.0 0.0 0.00 0.00 0.00 91 1008.7
20260905043757 22 263 0.0 0.0 0.00 0.00 0.00 91 1008.8
20260905043530 22 263 0.0 0.0 0.00 0.03 0.00 91 1008.9
20260905043519 22 263 0.0 0.0 0.00 0.00 0.00 91 1008.7
20260905043448 22 263 0.0 0.0 0.00 0.00 0.00 91 1008.8
20260905043347 22 263 0.0 0.0 0.00 0.00 0.00 91 1008.7
20260905043249 22 263 0.0 0.0 0.00 0.00 0.00 91 1008.7
20260905043242 23 263 0.0 0.0 0.00 0.00 0.00 91 1008.8
20260905043145 23 263 0.0 0.0 0.00 0.00 0.00 91 1008.8
20260905043126 23 263 0.0 0.0 0.00 0.00 0.00 91 1008.8
20260905043030 23 263 0.0 0.0 0.00 0.03 0.00 91 1009.0
20260905042946 23 263 0.0 0.0 0.00 0.00 0.00 91 1008.8
20260905042845 23 263 0.0 0.0 0.00 0.00 0.00 91 1008.8
20260905042745 23 263 0.0 0.0 0.00 0.00 0.00 91 1008.8
20260905042659 23 263 0.0 0.0 0.00 0.00 0.00 91 1008.8
20260905042653 23 263 0.0 0.0 0.00 0.00 0.00 91 1008.8
20260905042530 23 263 0.0 0.0 0.00 0.03 0.00 91 1009.0
20260905042516 23 263 0.0 0.0 0.00 0.00 0.00 91 1008.8
20260905042444 23 263 0.0 0.0 0.00 0.00 0.00 91 1008.8
20260905042357 23 263 0.0 0.0 0.00 0.00 0.00 91 1008.8
20260905042352 23 263 0.0 0.0 0.00 0.00 0.00 91 1008.7
20260905042142 23 263 0.0 0.0 0.00 0.00 0.00 91 1008.8
20260905042030 23 263 0.0 0.0 0.00 0.03 0.00 91 1009.0
20260905042015 23 263 0.0 0.0 0.00 0.00 0.00 91 1008.7
20260905041941 23 263 0.0 0.0 0.00 0.00 0.00 91 1008.8
20260905041841 23 263 0.0 0.0 0.00 0.00 0.00 91 1008.8
20260905041759 23 263 0.0 0.0 0.00 0.00 0.00 91 1008.8
20260905041755 23 263 0.0 0.0 0.00 0.00 0.00 91 1008.8
20260905041749 23 263 0.0 0.0 0.00 0.00 0.00 91 1008.8
20260905041624 23 263 0.0 0.0 0.00 0.00 0.00 91 1008.8
20260905041545 23 263 0.0 0.0 0.00 0.03 0.00 91 1009.1
20260905041440 23 263 0.0 0.0 0.00 0.00 0.00 91 1008.9
20260905041340 23 263 0.0 0.0 0.00 0.00 0.00 91 1008.9
20260905041239 23 263 0.0 0.0 0.00 0.00 0.00 91 1008.8
20260905041139 23 263 0.0 0.0 0.00 0.00 0.00 91 1008.8
20260905041030 23 263 0.0 0.0 0.00 0.03 0.00 91 1009.1
20260905041014 23 263 0.0 0.0 0.00 0.00 0.00 91 1008.8
20260905040938 23 263 0.0 0.0 0.00 0.00 0.00 91 1008.9
20260905040852 23 263 0.0 0.0 0.00 0.00 0.00 91 1008.8
20260905040847 23 263 0.0 0.0 0.00 0.00 0.00 91 1008.8
20260905040651 23 263 0.0 0.0 0.00 0.00 0.00 91 1008.8
20260905040646 23 263 0.0 0.0 0.00 0.00 0.00 91 1008.8
20260905040530 23 263 0.0 0.0 0.00 0.05 0.00 91 1009.0
20260905040514 23 263 0.0 0.0 0.00 0.00 0.00 91 1008.8
20260905040436 23 263 0.0 0.0 0.00 0.00 0.00 91 1008.8
20260905040335 23 263 0.0 0.0 0.00 0.00 0.00 91 1008.8
20260905040235 23 263 0.0 0.0 0.00 0.00 0.00 91 1008.8
20260905040149 23 263 0.0 0.0 0.00 0.00 0.00 91 1008.8
20260905040143 23 263 0.0 0.0 0.00 0.00 0.00 91 1008.8
20260905040030 23 263 0.0 0.0 0.00 0.05 0.00 91 1009.0
20260905040012 23 263 0.0 0.0 0.00 0.00 0.00 91 1008.8
20260905035934 23 263 0.0 0.0 0.00 0.00 0.05 91 1008.8
20260905035832 23 263 0.0 0.0 0.00 0.00 0.05 91 1008.8
20260905035732 23 263 0.0 0.0 0.00 0.00 0.05 91 1008.8
20260905035632 23 263 0.0 0.0 0.00 0.00 0.05 91 1008.8
20260905035545 23 263 0.0 0.0 0.00 0.05 0.05 91 1009.0
20260905035512 23 263 0.0 0.0 0.00 0.00 0.05 91 1008.7
20260905035445 23 263 0.0 0.0 0.00 0.00 0.05 91 1008.8
20260905035440 23 263 0.0 0.0 0.00 0.00 0.05 91 1008.8
20260905035230 23 263 0.0 0.0 0.00 0.00 0.05 91 1008.7
20260905035130 23 263 0.0 0.0 0.00 0.00 0.05 91 1008.8
20260905035030 23 263 0.0 0.0 0.00 0.05 0.05 91 1009.0
20260905035010 23 263 0.0 0.0 0.00 0.00 0.05 91 1008.8
20260905034929 23 263 0.0 0.0 0.00 0.00 0.05 91 1008.8
20260905034829 23 263 0.0 0.0 0.00 0.00 0.05 91 1008.8
20260905034728 23 263 0.0 0.0 0.00 0.00 0.05 91 1008.7
20260905034628 23 263 0.0 0.0 0.00 0.00 0.05 91 1008.7
20260905034530 23 263 0.0 0.0 0.00 0.05 0.05 91 1008.9
20260905034508 23 263 0.0 0.0 0.00 0.00 0.05 91 1008.7
20260905034427 23 263 0.0 0.0 0.00 0.00 0.05 91 1008.7
20260905034327 23 263 0.0 0.0 0.00 0.00 0.05 91 1008.8
20260905034227 23 263 0.0 0.0 0.00 0.00 0.05 91 1008.8
20260905034126 23 263 0.0 0.0 0.00 0.00 0.05 91 1008.8
20260905034030 23 263 0.0 0.0 0.00 0.05 0.05 91 1008.9
20260905034008 23 263 0.0 0.0 0.00 0.00 0.05 91 1008.7
20260905033925 23 263 0.0 0.0 0.00 0.00 0.05 91 1008.7
20260905033839 23 263 0.0 0.0 0.00 0.00 0.05 91 1008.7
20260905033834 23 263 0.0 0.0 0.00 0.00 0.05 91 1008.7
20260905033530 23 263 0.0 0.0 0.00 0.05 0.05 90 1009.0
20260905033508 23 263 0.0 0.0 0.00 0.00 0.05 90 1008.8
20260905033458 23 263 0.0 0.0 0.00 0.00 0.05 90 1008.8
20260905033344 23 263 0.0 0.0 0.00 0.00 0.05 90 1008.8
20260905033231 23 263 0.0 0.0 0.00 0.00 0.05 90 1008.8
20260905033113 23 263 0.0 0.0 0.00 0.00 0.05 90 1008.7
20260905033030 23 263 0.0 0.0 0.00 0.05 0.05 90 1008.9
20260905032919 23 263 0.0 0.0 0.00 0.00 0.05 90 1008.7
20260905032818 23 263 0.0 0.0 0.00 0.00 0.05 90 1008.7
20260905032718 23 263 0.0 0.0 0.00 0.00 0.05 90 1008.7
20260905032600 23 263 0.0 0.0 0.00 0.05 0.05 90 1008.9
20260905032505 23 263 0.0 0.0 0.00 0.00 0.05 90 1008.7
20260905032415 23 263 0.0 0.0 0.00 0.00 0.05 90 1008.7
20260905032314 23 263 0.0 0.0 0.00 0.00 0.05 90 1008.8
20260905032214 23 263 0.0 0.0 0.00 0.00 0.05 90 1008.8
20260905032112 23 263 0.0 0.0 0.00 0.00 0.05 90 1008.8
20260905032030 23 263 0.0 0.0 0.00 0.05 0.05 90 1008.9
20260905032012 23 263 0.0 0.0 0.00 0.00 0.05 90 1008.8
20260905032005 23 263 0.0 0.0 0.00 0.00 0.05 90 1008.7
20260905031925 23 263 0.0 0.0 0.00 0.00 0.05 90 1008.7
20260905031920 23 263 0.0 0.0 0.00 0.00 0.05 90 1008.7
20260905031712 23 263 0.0 0.0 0.00 0.00 0.05 90 1008.7
20260905031626 23 263 0.0 0.0 0.00 0.00 0.05 90 1008.7
20260905031621 23 263 0.0 0.0 0.00 0.00 0.05 90 1008.7
20260905031530 23 263 0.0 0.0 0.00 0.05 0.05 90 1008.9
20260905031505 23 263 0.0 0.0 0.00 0.00 0.05 90 1008.7
20260905031411 23 263 0.0 0.0 0.00 0.00 0.05 89 1008.7
20260905031311 23 263 0.0 0.0 0.00 0.00 0.05 89 1008.7
20260905031210 23 263 0.0 0.0 0.00 0.00 0.05 89 1008.6
20260905031127 23 263 0.0 0.0 0.00 0.00 0.05 89 1008.7
20260905031121 23 263 0.0 0.0 0.00 0.00 0.05 89 1008.7
20260905031030 23 263 0.0 0.0 0.00 0.05 0.05 89 1008.8
20260905031005 23 263 0.0 0.0 0.00 0.00 0.05 89 1008.6
20260905030909 23 263 0.0 0.0 0.00 0.00 0.05 89 1008.6
20260905030809 23 263 0.0 0.0 0.00 0.00 0.05 89 1008.6
20260905030722 23 263 0.0 0.0 0.00 0.00 0.05 89 1008.6
20260905030717 23 263 0.0 0.0 0.00 0.00 0.05 89 1008.6
20260905030530 23 263 0.0 0.0 0.00 0.05 0.05 89 1008.8
20260905030505 23 263 0.0 0.0 0.00 0.00 0.05 89 1008.6
20260905030407 23 263 0.0 0.0 0.00 0.00 0.05 89 1008.6
20260905030306 23 263 0.0 0.0 0.00 0.00 0.05 89 1008.6
20260905030206 23 263 0.0 0.0 0.00 0.00 0.05 89 1008.6
20260905030106 23 263 0.0 0.0 0.00 0.00 0.05 89 1008.6
20260905030030 23 263 0.0 0.0 0.00 0.05 0.05 89 1008.8
20260905030007 23 263 0.0 0.0 0.00 0.00 0.05 89 1008.6
20260905025905 23 263 0.0 0.0 0.00 0.00 0.05 89 1008.6
20260905025806 23 263 0.0 0.0 0.00 0.00 0.05 89 1008.6
20260905025732 23 263 0.0 0.0 0.00 0.00 0.05 89 1008.6
20260905025620 23 263 0.0 0.0 0.00 0.00 0.05 89 1008.6
20260905025530 23 263 0.0 0.0 0.00 0.05 0.05 89 1008.8
20260905025507 23 263 0.0 0.0 0.00 0.00 0.05 89 1008.6
20260905025404 23 263 0.0 0.0 0.00 0.00 0.05 89 1008.6
20260905025306 23 263 0.0 0.0 0.00 0.00 0.05 89 1008.6
20260905025204 23 263 0.0 0.0 0.00 0.00 0.05 89 1008.5
20260905025103 23 263 0.0 0.0 0.00 0.00 0.05 89 1008.6
20260905025030 23 263 0.0 0.0 0.00 0.05 0.05 89 1008.7
20260905025002 23 263 0.0 0.0 0.00 0.00 0.05 89 1008.5
20260905024903 23 263 0.0 0.0 0.00 0.00 0.05 89 1008.5
20260905024802 23 263 0.0 0.0 0.00 0.00 0.05 89 1008.6
20260905024702 23 263 0.0 0.0 0.00 0.00 0.05 89 1008.6
20260905024601 23 263 0.0 0.0 0.00 0.00 0.05 89 1008.5
20260905024530 23 263 0.0 0.0 0.00 0.05 0.05 89 1008.7
20260905024505 23 263 0.0 0.0 0.00 0.00 0.05 89 1008.5
20260905024500 23 263 0.0 0.0 0.00 0.00 0.05 89 1008.5
20260905024359 23 263 0.0 0.0 0.00 0.00 0.05 89 1008.5
20260905024259 23 263 0.0 0.0 0.00 0.00 0.05 89 1008.5
20260905024159 23 263 0.0 0.0 0.00 0.00 0.05 89 1008.5
20260905024058 23 263 0.0 0.0 0.00 0.00 0.05 89 1008.5
20260905024030 23 263 0.0 0.0 0.00 0.05 0.05 89 1008.7
20260905024004 23 263 0.0 0.0 0.00 0.00 0.05 89 1008.5
20260905023958 23 263 0.0 0.0 0.00 0.00 0.05 89 1008.5
20260905023911 23 263 0.0 0.0 0.00 0.00 0.05 89 1008.6
20260905023907 23 263 0.0 0.0 0.00 0.00 0.05 89 1008.6
20260905023711 23 263 0.0 0.0 0.00 0.00 0.05 89 1008.6
20260905023707 23 263 0.0 0.0 0.00 0.00 0.05 89 1008.6
20260905023530 23 263 0.0 0.0 0.00 0.05 0.05 89 1008.8
20260905023503 23 263 0.0 0.0 0.00 0.00 0.05 89 1008.6
20260905023457 23 263 0.0 0.0 0.00 0.00 0.05 89 1008.6
20260905023357 23 263 0.0 0.0 0.00 0.00 0.05 88 1008.6
20260905023256 23 263 0.0 0.0 0.00 0.00 0.05 88 1008.7
20260905023156 23 263 0.0 0.0 0.00 0.00 0.05 89 1008.7
20260905023056 23 263 0.0 0.0 0.00 0.00 0.05 89 1008.6
20260905023030 23 263 0.0 0.0 0.00 0.05 0.05 89 1008.8
20260905023003 23 263 0.0 0.0 0.00 0.00 0.05 89 1008.6
20260905022955 23 263 0.0 0.0 0.00 0.00 0.05 89 1008.6
20260905022855 23 263 0.0 0.0 0.00 0.00 0.05 89 1008.6
20260905022755 23 263 0.0 0.0 0.00 0.00 0.05 89 1008.6
20260905022654 23 263 0.0 0.0 0.00 0.00 0.05 89 1008.5
20260905022554 23 263 0.0 0.0 0.00 0.00 0.05 89 1008.5
20260905022530 23 263 0.0 0.0 0.00 0.05 0.05 89 1008.8
20260905022502 23 263 0.0 0.0 0.00 0.00 0.05 89 1008.6
20260905022454 23 263 0.0 0.0 0.00 0.00 0.05 89 1008.6
20260905022430 23 263 0.0 0.0 0.00 0.00 0.05 88 1008.6
20260905022424 23 263 0.0 0.0 0.00 0.00 0.05 89 1008.5
20260905022311 23 263 0.0 0.0 0.00 0.00 0.05 88 1008.6
20260905022030 23 263 0.0 0.0 0.00 0.05 0.05 88 1008.7
20260905022003 23 263 0.0 0.0 0.00 0.00 0.05 88 1008.5
20260905021954 23 263 0.0 0.0 0.00 0.00 0.05 88 1008.5
20260905021947 23 263 0.0 0.0 0.00 0.00 0.05 89 1008.5
20260905021942 23 263 0.0 0.0 0.00 0.00 0.05 89 1008.5
20260905021937 23 263 0.0 0.0 0.00 0.00 0.05 88 1008.5
20260905021823 23 263 0.0 0.0 0.00 0.00 0.05 88 1008.5
20260905021600 23 263 0.0 0.0 0.00 0.05 0.05 89 1008.7
20260905021556 23 263 0.0 0.0 0.00 0.00 0.05 89 1008.5
20260905021350 23 263 0.0 0.0 0.00 0.00 0.05 89 1008.5
20260905021249 23 263 0.0 0.0 0.00 0.00 0.05 89 1008.5
20260905021225 23 263 0.0 0.0 0.00 0.00 0.05 89 1008.5
20260905021148 23 263 0.0 0.0 0.00 0.00 0.05 89 1008.5
20260905021111 23 263 0.0 0.0 0.00 0.00 0.05 89 1008.5
20260905021045 23 263 0.0 0.0 0.00 0.05 0.05 89 1008.7
20260905020947 23 263 0.0 0.0 0.00 0.00 0.05 89 1008.5
20260905020846 23 263 0.0 0.0 0.00 0.00 0.05 89 1008.5
20260905020746 23 263 0.0 0.0 0.00 0.00 0.05 89 1008.5
20260905020646 23 263 0.0 0.0 0.00 0.00 0.05 89 1008.5
20260905020545 23 263 0.0 0.0 0.00 0.00 0.05 89 1008.5
20260905020530 23 263 0.0 0.0 0.00 0.05 0.05 89 1008.7
20260905020444 23 263 0.0 0.0 0.00 0.00 0.05 88 1008.6
20260905020344 23 263 0.0 0.0 0.00 0.00 0.05 88 1008.6
20260905020243 23 263 0.0 0.0 0.00 0.00 0.05 88 1008.6
20260905020143 23 263 0.0 0.0 0.00 0.00 0.05 89 1008.6
20260905020043 23 263 0.0 0.0 0.00 0.00 0.05 88 1008.6
20260905020030 23 263 0.0 0.0 0.00 0.05 0.05 88 1008.7
20260905015955 23 263 0.0 0.0 0.00 0.00 0.05 88 1008.6
20260905015951 23 263 0.0 0.0 0.00 0.00 0.05 88 1008.6
20260905015740 23 263 0.0 0.0 0.00 0.00 0.05 88 1008.7
20260905015718 23 263 0.0 0.0 0.00 0.00 0.05 88 1008.7
20260905015640 23 263 0.0 0.0 0.00 0.00 0.05 88 1008.7
20260905015609 23 263 0.0 0.0 0.00 0.00 0.05 88 1008.7
20260905015530 23 263 0.0 0.0 0.00 0.05 0.05 88 1008.8
20260905015440 23 263 0.0 0.0 0.00 0.00 0.05 88 1008.7
20260905015340 23 263 0.0 0.0 0.00 0.00 0.05 88 1008.7
20260905015239 23 263 0.0 0.0 0.00 0.00 0.05 88 1008.7
20260905015138 23 263 0.0 0.0 0.00 0.00 0.05 88 1008.8
20260905015103 23 263 0.0 0.0 0.00 0.00 0.05 88 1008.8
20260905015055 23 263 0.0 0.0 0.00 0.00 0.05 88 1008.7
20260905015031 23 263 0.0 0.0 0.00 0.05 0.05 88 1008.8
20260905014944 23 263 0.0 0.0 0.00 0.00 0.05 88 1008.7
20260905014735 23 263 0.0 0.0 0.00 0.00 0.05 88 1008.7
20260905014649 23 263 0.0 0.0 0.00 0.00 0.05 88 1008.7
20260905014645 23 263 0.0 0.0 0.00 0.00 0.05 88 1008.7
20260905014530 23 263 0.0 0.0 0.00 0.05 0.05 88 1008.8
20260905014434 23 263 0.0 0.0 0.00 0.00 0.05 88 1008.7
20260905014334 23 263 0.0 0.0 0.00 0.00 0.05 88 1008.7
20260905014234 23 263 0.0 0.0 0.00 0.00 0.05 87 1008.7
20260905014133 23 263 0.0 0.0 0.00 0.00 0.05 87 1008.7
20260905014033 23 263 0.0 0.0 0.00 0.00 0.05 87 1008.7
20260905014030 23 263 0.0 0.0 0.00 0.05 0.05 87 1008.7
20260905013931 23 263 0.0 0.0 0.00 0.00 0.05 87 1008.7
20260905013831 23 263 0.0 0.0 0.00 0.00 0.05 87 1008.7
20260905013732 23 263 0.0 0.0 0.00 0.00 0.05 87 1008.7
20260905013630 23 263 0.0 0.0 0.00 0.00 0.05 88 1008.7
20260905013545 23 263 0.0 0.0 0.00 0.05 0.05 88 1008.8
20260905013530 23 263 0.0 0.0 0.00 0.00 0.05 88 1008.8
20260905013430 23 263 0.0 0.0 0.00 0.00 0.05 88 1008.7
20260905013344 23 263 0.0 0.0 0.00 0.00 0.05 87 1008.7
20260905013339 23 263 0.0 0.0 0.00 0.00 0.05 88 1008.7
20260905013220 23 263 0.0 0.0 0.00 0.00 0.05 87 1008.7
20260905013216 23 263 0.0 0.0 0.00 0.00 0.05 87 1008.7
20260905013211 23 263 0.0 0.0 0.00 0.00 0.05 87 1008.7
20260905013031 23 263 0.0 0.0 0.00 0.05 0.05 87 1008.7
20260905012930 23 263 0.0 0.0 0.00 0.00 0.05 87 1008.7
20260905012828 23 263 0.0 0.0 0.00 0.00 0.05 87 1008.7
20260905012728 24 263 0.0 0.0 0.00 0.00 0.05 87 1008.7
20260905012628 24 263 0.0 0.0 0.00 0.00 0.05 87 1008.6
20260905012545 24 263 0.0 0.0 0.00 0.05 0.05 87 1008.8
20260905012541 24 263 0.0 0.0 0.00 0.00 0.05 87 1008.7
20260905012533 24 263 0.0 0.0 0.00 0.00 0.05 87 1008.7
20260905012325 24 263 0.0 0.0 0.00 0.00 0.05 87 1008.7
20260905012225 24 263 0.0 0.0 0.00 0.00 0.05 87 1008.7
20260905012125 24 263 0.0 0.0 0.00 0.00 0.05 87 1008.7
20260905012045 24 263 0.0 0.0 0.00 0.05 0.05 87 1008.9
20260905012024 24 263 0.0 0.0 0.00 0.00 0.05 87 1008.7
20260905011924 24 263 0.0 0.0 0.00 0.00 0.05 87 1008.8
20260905011824 24 263 0.0 0.0 0.00 0.00 0.05 87 1008.8
20260905011723 24 263 0.0 0.0 0.00 0.00 0.05 87 1008.8
20260905011712 24 263 0.0 0.0 0.00 0.00 0.05 87 1008.8
20260905011623 24 263 0.0 0.0 0.00 0.00 0.05 87 1008.8
20260905011557 24 263 0.0 0.0 0.00 0.00 0.05 87 1008.8
20260905011530 24 263 0.0 0.0 0.00 0.05 0.05 87 1008.9
20260905011422 24 263 0.0 0.0 0.00 0.00 0.05 87 1008.8
20260905011322 24 263 0.0 0.0 0.00 0.00 0.05 87 1008.8
20260905011222 24 263 0.0 0.0 0.00 0.00 0.05 86 1008.8
20260905011122 24 263 0.0 0.0 0.00 0.00 0.05 86 1008.8
20260905011035 24 263 0.0 0.0 0.00 0.00 0.05 86 1008.8
20260905011030 24 263 0.0 0.0 0.00 0.05 0.05 86 1008.9
20260905011027 24 263 0.0 0.0 0.00 0.00 0.05 86 1008.8
20260905010819 24 263 0.0 0.0 0.00 0.00 0.05 86 1008.7
20260905010719 24 263 0.0 0.0 0.00 0.00 0.05 86 1008.7
20260905010619 24 263 0.0 0.0 0.00 0.00 0.05 86 1008.7
20260905010530 24 263 0.0 0.0 0.00 0.05 0.05 86 1008.8
20260905010518 24 263 0.0 0.0 0.00 0.00 0.05 86 1008.7
20260905010418 24 263 0.0 0.0 0.00 0.00 0.05 86 1008.7
20260905010331 24 263 0.0 0.0 0.00 0.00 0.05 86 1008.7
20260905010218 24 263 0.0 0.0 0.00 0.00 0.05 86 1008.7
20260905010118 24 263 0.0 0.0 0.00 0.00 0.05 86 1008.7
20260905010100 24 263 0.0 0.0 0.00 0.05 0.05 86 1008.7
20260905010051 24 263 0.0 0.0 0.00 0.00 0.05 86 1008.7
20260905005917 24 263 0.0 0.0 0.00 0.00 0.05 86 1008.6
20260905005816 24 263 0.0 0.0 0.00 0.00 0.05 86 1008.7
20260905005732 24 263 0.0 0.0 0.00 0.00 0.05 86 1008.7
20260905005728 24 263 0.0 0.0 0.00 0.00 0.05 85 1008.7
20260905005723 24 263 0.0 0.0 0.00 0.00 0.05 86 1008.7
20260905005550 24 263 0.0 0.0 0.00 0.00 0.05 85 1008.7
20260905005530 24 263 0.0 0.0 0.00 0.05 0.05 85 1008.7
20260905005413 24 263 0.0 0.0 0.00 0.00 0.05 85 1008.7
20260905005313 24 263 0.0 0.0 0.00 0.00 0.05 85 1008.7
20260905005213 24 263 0.0 0.0 0.00 0.00 0.05 85 1008.7
20260905005112 24 263 0.0 0.0 0.00 0.00 0.05 85 1008.7
20260905005100 24 263 0.0 0.0 0.00 0.05 0.05 85 1008.8
20260905005012 24 263 0.0 0.0 0.00 0.00 0.05 85 1008.7
20260905004924 24 263 0.0 0.0 0.00 0.00 0.05 85 1008.8
20260905004920 24 263 0.0 0.0 0.00 0.00 0.05 85 1008.8
20260905004711 24 263 0.0 0.0 0.00 0.00 0.05 85 1008.8
20260905004611 24 263 0.0 0.0 0.00 0.00 0.05 85 1008.7
20260905004531 24 263 0.0 0.0 0.00 0.05 0.05 85 1008.7
20260905004523 24 263 0.0 0.0 0.00 0.00 0.05 85 1008.7
20260905004515 24 263 0.0 0.0 0.00 0.00 0.05 85 1008.7
20260905004321 24 263 0.0 0.0 0.00 0.00 0.05 85 1008.7
20260905004317 24 263 0.0 0.0 0.00 0.00 0.05 85 1008.7
20260905004106 24 263 0.0 0.0 0.00 0.00 0.05 85 1008.7
20260905004030 24 263 0.0 0.0 0.00 0.05 0.05 85 1008.7
20260905004020 24 263 0.0 0.0 0.00 0.00 0.05 85 1008.7
20260905004012 24 263 0.0 0.0 0.00 0.00 0.05 85 1008.7
20260905003805 24 263 0.0 0.0 0.00 0.00 0.05 85 1008.7
20260905003749 24 263 0.0 0.0 0.00 0.00 0.05 85 1008.6
20260905003705 24 263 0.0 0.0 0.00 0.00 0.05 85 1008.6
20260905003641 24 263 0.0 0.0 0.00 0.00 0.05 85 1008.6
20260905003631 24 263 0.0 0.0 0.00 0.00 0.05 85 1008.6
20260905003530 24 263 0.0 0.0 0.00 0.05 0.05 85 1008.6
20260905003413 24 263 0.0 0.0 0.00 0.00 0.05 85 1008.6
20260905003202 24 263 0.0 0.0 0.00 0.00 0.05 85 1008.6
20260905003102 24 263 0.0 0.0 0.00 0.00 0.05 84 1008.6
20260905003046 24 263 0.0 0.0 0.00 0.00 0.05 84 1008.6
20260905003042 24 263 0.0 0.0 0.00 0.00 0.05 84 1008.6
20260905003038 24 263 0.0 0.0 0.00 0.00 0.05 84 1008.6
20260905003025 24 263 0.0 0.0 0.00 0.00 0.05 84 1008.6
20260905002559 24 263 0.0 0.0 0.00 0.00 0.05 84 1008.7
20260905002530 25 263 0.0 0.0 0.00 0.05 0.05 84 1008.6
20260905002436 24 263 0.0 0.0 0.00 0.00 0.05 84 1008.6
20260905002358 25 263 0.0 0.0 0.00 0.00 0.05 84 1008.6
20260905002258 25 263 0.0 0.0 0.00 0.00 0.05 84 1008.6
20260905002158 25 263 0.0 0.0 0.00 0.00 0.05 84 1008.6
20260905002057 25 263 0.0 0.0 0.00 0.00 0.05 83 1008.6
20260905002031 25 263 0.0 0.0 0.00 0.05 0.05 83 1008.5
20260905001934 25 263 0.0 0.0 0.00 0.00 0.05 83 1008.5
20260905001857 25 263 0.0 0.0 0.00 0.00 0.05 83 1008.6
20260905001756 25 263 0.0 0.0 0.00 0.00 0.05 83 1008.5
20260905001656 25 263 0.0 0.0 0.00 0.00 0.05 83 1008.5
20260905001607 25 263 0.0 0.0 0.00 0.00 0.05 83 1008.5
20260905001558 25 263 0.0 0.0 0.00 0.00 0.05 83 1008.5
20260905001530 25 263 0.0 0.0 0.00 0.05 0.05 83 1008.5
20260905001445 25 263 0.0 0.0 0.00 0.00 0.05 83 1008.5
20260905001439 25 263 0.0 0.0 0.00 0.00 0.05 82 1008.5
20260905001327 25 263 0.0 0.0 0.00 0.00 0.05 82 1008.4
20260905001321 25 263 0.0 0.0 0.00 0.00 0.05 82 1008.5
20260905001030 25 263 0.0 0.0 0.00 0.05 0.05 82 1008.4
20260905000934 25 263 0.0 0.0 0.00 0.00 0.05 82 1008.4
20260905000853 25 263 0.0 0.0 0.00 0.00 0.05 82 1008.3
20260905000753 25 263 0.0 0.0 0.00 0.00 0.05 82 1008.4
20260905000652 25 263 0.0 0.0 0.00 0.00 0.05 82 1008.3
20260905000552 25 263 0.0 0.0 0.00 0.00 0.05 82 1008.4
20260905000530 25 263 0.0 0.0 0.00 0.05 0.05 82 1008.3
20260905000432 25 263 0.0 0.0 0.00 0.00 0.05 82 1008.3
20260905000351 25 263 0.0 0.0 0.00 0.00 0.05 82 1008.3
20260905000251 25 263 0.0 0.0 0.00 0.00 0.05 82 1008.3
20260905000204 25 263 0.0 0.0 0.00 0.00 0.05 81 1008.3
20260905000159 25 263 0.0 0.0 0.00 0.00 0.05 81 1008.3
20260905000030 25 263 0.0 0.0 0.00 0.05 0.05 81 1008.3
20260904235930 25 263 0.0 0.0 0.00 0.00 0.05 81 1008.3
20260904235849 25 263 0.0 0.0 0.00 0.00 0.05 81 1008.3
20260904235749 25 263 0.0 0.0 0.00 0.00 0.05 80 1008.3
20260904235647 25 263 0.0 0.0 0.00 0.00 0.05 80 1008.3
20260904235548 25 263 0.0 0.0 0.00 0.00 0.05 80 1008.3
20260904235545 25 263 0.0 0.0 0.00 0.05 0.05 80 1008.2
20260904235507 25 263 0.0 0.0 0.00 0.00 0.05 80 1008.2
20260904235454 25 263 0.0 0.0 0.00 0.00 0.05 80 1008.2
20260904235246 25 263 0.0 0.0 0.00 0.00 0.05 80 1008.2
20260904235159 25 263 0.0 0.0 0.00 0.00 0.05 79 1008.2
20260904235155 25 263 0.0 0.0 0.00 0.00 0.05 79 1008.2
20260904235030 25 263 0.0 0.0 0.00 0.05 0.05 79 1008.2
20260904234927 25 263 0.0 0.0 0.00 0.00 0.05 79 1008.2
20260904234846 25 263 0.0 0.0 0.00 0.00 0.05 79 1008.2
20260904234746 25 263 0.0 0.0 0.00 0.00 0.05 79 1008.2
20260904234645 25 263 0.0 0.0 0.00 0.00 0.05 78 1008.2
20260904234544 25 263 0.0 0.0 0.00 0.00 0.05 78 1008.2
20260904234531 26 263 0.0 0.0 0.00 0.05 0.05 78 1008.2
20260904234444 25 263 0.0 0.0 0.00 0.00 0.05 78 1008.2
20260904234428 26 263 0.0 0.0 0.00 0.00 0.05 78 1008.2
20260904234343 26 263 0.0 0.0 0.00 0.00 0.05 78 1008.2
20260904234243 26 263 0.0 0.0 0.00 0.00 0.05 77 1008.2
20260904234230 26 263 0.0 0.0 0.00 0.00 0.05 78 1008.2
20260904234144 26 263 0.0 0.0 0.00 0.00 0.05 77 1008.2
20260904234120 26 263 0.0 0.0 0.00 0.00 0.05 77 1008.2
20260904234111 26 263 0.0 0.0 0.00 0.00 0.05 78 1008.2
20260904234045 26 263 0.0 0.0 0.00 0.05 0.05 78 1008.2
20260904233851 26 263 0.0 0.0 0.00 0.00 0.05 78 1008.2
20260904233642 26 263 0.0 0.0 0.00 0.00 0.05 78 1008.2
20260904233542 26 263 0.0 0.0 0.00 0.00 0.05 78 1008.2
20260904233530 26 263 0.0 0.0 0.00 0.05 0.05 78 1008.2
20260904233427 26 263 0.0 0.0 0.00 0.00 0.05 78 1008.2
20260904233417 26 263 0.0 0.0 0.00 0.00 0.05 76 1008.1
20260904233412 26 263 0.0 0.0 0.00 0.00 0.05 77 1008.1
20260904233259 26 263 0.0 0.0 0.00 0.00 0.05 75 1008.2
20260904233254 26 263 0.0 0.0 0.00 0.00 0.05 77 1008.1
20260904233245 26 263 0.0 0.0 0.00 0.00 0.05 76 1008.1
20260904233030 26 263 0.0 0.0 0.00 0.05 0.05 76 1008.2
20260904233025 26 263 0.0 0.0 0.00 0.00 0.05 75 1008.2
20260904233018 26 263 0.0 0.0 0.00 0.00 0.05 76 1008.2
20260904233011 26 263 0.0 0.0 0.00 0.00 0.05 75 1008.2
20260904232530 26 263 0.0 0.0 0.00 0.05 0.05 74 1008.2
20260904232523 26 263 0.0 0.0 0.00 0.00 0.05 75 1008.1
20260904232518 26 263 0.0 0.0 0.00 0.00 0.05 76 1008.1
20260904232506 26 263 0.0 0.0 0.00 0.00 0.05 74 1008.2
20260904232353 26 263 0.0 0.0 0.00 0.00 0.05 74 1008.1
20260904232045 26 263 0.0 0.0 0.00 0.05 0.05 75 1008.1
20260904232040 26 263 0.0 0.0 0.00 0.00 0.05 75 1008.1
20260904232031 26 263 0.0 0.0 0.00 0.00 0.05 75 1008.1
20260904231834 26 263 0.0 0.0 0.00 0.00 0.05 75 1008.1
20260904231746 26 263 0.0 0.0 0.00 0.00 0.05 73 1008.1
20260904231742 26 263 0.0 0.0 0.00 0.00 0.05 74 1008.1
20260904231559 26 263 0.0 0.0 0.00 0.00 0.05 74 1008.1
20260904231531 27 263 0.0 0.0 0.00 0.05 0.05 74 1008.1
20260904231439 26 263 0.0 0.0 0.00 0.00 0.05 74 1008.1
20260904231231 27 263 0.0 0.0 0.00 0.00 0.05 73 1008.0
20260904231152 27 263 0.0 0.0 0.00 0.00 0.05 73 1008.1
20260904231039 27 263 0.0 0.0 0.00 0.00 0.05 73 1008.0
20260904231030 27 263 0.0 0.0 0.00 0.05 0.05 73 1008.1
20260904230923 27 263 0.0 0.0 0.00 0.00 0.05 73 1008.1
20260904230843 27 263 0.0 0.0 0.00 0.00 0.05 72 1008.1
20260904230839 27 263 0.0 0.0 0.00 0.00 0.05 73 1008.1
20260904230628 27 263 0.0 0.0 0.00 0.00 0.05 73 1008.2
20260904230542 27 263 0.0 0.0 0.00 0.00 0.05 73 1008.2
20260904230537 27 263 0.0 0.0 0.00 0.00 0.05 73 1008.1
20260904230530 27 263 0.0 0.0 0.00 0.05 0.05 73 1008.2
20260904230420 27 263 0.0 0.0 0.00 0.00 0.05 73 1008.2
20260904230403 27 263 0.0 0.0 0.00 0.00 0.05 72 1008.2
20260904230251 27 263 0.0 0.0 0.00 0.00 0.05 72 1008.3
20260904230245 27 263 0.0 0.0 0.00 0.00 0.05 72 1008.2
20260904230030 27 263 0.0 0.0 0.00 0.05 0.05 72 1008.3
20260904225919 27 263 0.0 0.0 0.00 0.00 0.05 72 1008.3
20260904225825 27 263 0.0 0.0 0.00 0.00 0.05 72 1008.3
20260904225725 27 263 0.0 0.0 0.00 0.00 0.05 72 1008.3
20260904225637 27 263 0.0 0.0 0.00 0.00 0.05 71 1008.3
20260904225633 27 263 0.0 0.0 0.00 0.00 0.05 71 1008.3
20260904225531 27 263 0.0 0.0 0.00 0.05 0.05 71 1008.2
20260904225419 27 263 0.0 0.0 0.00 0.00 0.05 71 1008.2
20260904225323 27 263 0.0 0.0 0.00 0.00 0.05 71 1008.3
20260904225223 27 263 0.0 0.0 0.00 0.00 0.05 71 1008.2
20260904225120 27 263 0.0 0.0 0.00 0.00 0.05 71 1008.3
20260904225030 27 263 0.0 0.0 0.00 0.05 0.05 70 1008.2
20260904225019 27 263 0.0 0.0 0.00 0.00 0.05 71 1008.3
20260904224939 27 263 0.0 0.0 0.00 0.00 0.05 71 1008.3
20260904224928 27 263 0.0 0.0 0.00 0.00 0.05 71 1008.3
20260904224718 27 263 0.0 0.0 0.00 0.00 0.05 71 1008.3
20260904224618 27 263 0.0 0.0 0.00 0.00 0.05 71 1008.3
20260904224530 27 263 0.0 0.0 0.00 0.05 0.05 71 1008.2
20260904224518 27 263 0.0 0.0 0.00 0.00 0.05 71 1008.3
20260904224416 27 263 0.0 0.0 0.00 0.00 0.05 71 1008.3
20260904224329 27 263 0.0 0.0 0.00 0.00 0.05 72 1008.3
20260904224324 27 263 0.0 0.0 0.00 0.00 0.05 72 1008.4
20260904224115 27 263 0.0 0.0 0.00 0.00 0.05 72 1008.3
20260904224030 27 263 0.0 0.0 0.00 0.05 0.05 72 1008.2
20260904224015 27 263 0.0 0.0 0.00 0.00 0.05 72 1008.3
20260904223914 27 263 0.0 0.0 0.00 0.00 0.05 72 1008.3
20260904223812 27 263 0.0 0.0 0.00 0.00 0.05 72 1008.4
20260904223753 27 263 0.0 0.0 0.00 0.00 0.05 71 1008.4
20260904223748 27 263 0.0 0.0 0.00 0.00 0.05 71 1008.4
20260904223635 27 263 0.0 0.0 0.00 0.00 0.05 71 1008.4
20260904223530 27 263 0.0 0.0 0.00 0.05 0.05 71 1008.4
20260904223411 27 263 0.0 0.0 0.00 0.00 0.05 71 1008.5
20260904223323 27 263 0.0 0.0 0.00 0.00 0.05 69 1008.5
20260904223319 27 263 0.0 0.0 0.00 0.00 0.05 70 1008.5
20260904223109 27 263 0.0 0.0 0.00 0.00 0.05 69 1008.5
20260904223100 27 263 0.0 0.0 0.00 0.05 0.05 69 1008.4
20260904223025 27 263 0.0 0.0 0.00 0.00 0.05 69 1008.5
20260904223016 27 263 0.0 0.0 0.00 0.00 0.05 69 1008.5
20260904222904 27 263 0.0 0.0 0.00 0.00 0.05 69 1008.6
20260904222900 27 263 0.0 0.0 0.00 0.00 0.05 69 1008.5
20260904222853 27 263 0.0 0.0 0.00 0.00 0.05 69 1008.5
20260904222530 28 263 0.0 0.0 0.00 0.05 0.05 70 1008.4
20260904222522 28 263 0.0 0.0 0.00 0.00 0.05 70 1008.5
20260904222512 28 263 0.0 0.0 0.00 0.00 0.05 70 1008.5
20260904222306 28 263 0.0 0.0 0.00 0.00 0.05 70 1008.6
20260904222205 28 263 0.0 0.0 0.00 0.00 0.05 69 1008.6
20260904222131 28 263 0.0 0.0 0.00 0.00 0.05 68 1008.5
20260904222105 28 263 0.0 0.0 0.00 0.00 0.05 69 1008.5
20260904222030 28 263 0.0 0.0 0.00 0.05 0.05 68 1008.4
20260904222018 28 263 0.0 0.0 0.00 0.00 0.05 68 1008.5
20260904221904 28 263 0.0 0.0 0.00 0.00 0.05 68 1008.5
20260904221805 28 263 0.0 0.0 0.00 0.00 0.05 68 1008.5
20260904221758 28 266 0.0 0.0 0.00 0.00 0.05 68 1008.6
20260904221754 28 267 0.0 0.0 0.00 0.00 0.05 68 1008.6
20260904221747 28 263 0.0 0.0 0.00 0.00 0.05 68 1008.5
20260904221600 28 267 0.0 0.0 0.00 0.05 0.05 68 1008.5
20260904221525 28 267 0.0 0.0 0.00 0.00 0.05 68 1008.6
20260904221515 28 267 0.0 0.0 0.00 0.00 0.05 68 1008.6
20260904221159 28 267 0.0 0.0 0.00 0.00 0.05 68 1008.6
20260904221059 28 267 0.0 0.0 0.00 0.00 0.05 68 1008.6
20260904221030 28 267 0.0 0.0 0.00 0.05 0.05 68 1008.5
20260904220959 28 267 0.0 0.0 0.00 0.00 0.05 68 1008.6
20260904220908 28 267 0.0 0.0 0.00 0.00 0.05 69 1008.6
20260904220858 28 267 0.0 0.0 0.00 0.00 0.05 69 1008.5
20260904220758 28 267 0.0 0.0 0.00 0.00 0.05 69 1008.5
20260904220657 28 267 0.0 0.0 0.00 0.00 0.05 68 1008.5
20260904220557 28 267 0.0 0.0 0.00 0.00 0.05 68 1008.5
20260904220531 28 267 0.0 0.0 0.00 0.05 0.05 68 1008.4
20260904220457 28 267 0.0 0.0 0.00 0.00 0.05 69 1008.5
20260904220407 28 267 0.0 0.0 0.00 0.00 0.05 67 1008.5
20260904220356 28 267 0.0 0.0 0.00 0.00 0.05 67 1008.5
20260904220256 28 266 0.0 0.0 0.00 0.00 0.05 68 1008.5
20260904220156 28 266 0.0 0.0 0.00 0.00 0.05 68 1008.5
20260904220054 28 266 0.0 0.0 0.00 0.00 0.05 66 1008.5
20260904220030 28 266 0.0 0.0 0.00 0.05 0.05 67 1008.3
20260904215955 28 266 0.0 0.0 0.00 0.00 0.05 67 1008.4
20260904215923 28 266 0.0 0.0 0.00 0.00 0.05 66 1008.4
20260904215917 28 266 0.0 0.0 0.00 0.00 0.05 66 1008.5
20260904215803 28 266 0.0 0.0 0.00 0.00 0.05 66 1008.5
20260904215553 28 266 0.0 0.0 0.00 0.00 0.05 66 1008.4
20260904215530 28 266 0.0 0.0 0.00 0.05 0.05 66 1008.3
20260904215513 28 266 0.0 0.0 0.00 0.00 0.05 66 1008.5
20260904215500 28 266 0.0 0.0 0.00 0.00 0.05 66 1008.4
20260904215251 28 266 0.0 0.0 0.00 0.00 0.05 66 1008.5
20260904215206 28 266 0.0 0.0 0.00 0.00 0.05 66 1008.5
20260904215201 28 266 0.0 0.0 0.00 0.00 0.05 66 1008.5
20260904215045 28 266 0.0 0.0 0.00 0.05 0.05 66 1008.4
20260904214950 28 266 0.0 0.0 0.00 0.00 0.05 66 1008.5
20260904214906 28 266 0.0 0.0 0.00 0.00 0.05 66 1008.5
20260904214851 28 266 0.0 0.0 0.00 0.00 0.05 66 1008.5
20260904214750 28 266 0.0 0.0 0.00 0.00 0.05 66 1008.6
20260904214650 28 266 0.0 0.0 0.00 0.00 0.05 66 1008.5
20260904214549 28 266 0.0 0.0 0.00 0.00 0.05 65 1008.6
20260904214530 28 266 0.0 0.0 0.00 0.05 0.05 65 1008.5
20260904214448 28 266 0.0 0.0 0.00 0.00 0.05 65 1008.6
20260904214405 28 266 0.0 0.0 0.00 0.00 0.05 65 1008.6
20260904214348 28 266 0.0 0.0 0.00 0.00 0.05 65 1008.6
20260904214248 28 266 0.0 0.0 0.00 0.00 0.05 65 1008.6
20260904214146 28 266 0.0 0.0 0.00 0.00 0.05 64 1008.6
20260904214046 28 266 0.0 0.0 0.00 0.00 0.05 64 1008.6
20260904214030 28 266 0.0 0.0 0.00 0.05 0.05 64 1008.4
20260904213946 28 266 0.0 0.0 0.00 0.00 0.05 64 1008.5
20260904213906 28 266 0.0 0.0 0.00 0.00 0.05 64 1008.6
20260904213900 28 266 0.0 0.0 0.00 0.00 0.05 64 1008.6
20260904213855 28 266 0.0 0.0 0.00 0.00 0.05 64 1008.6
20260904213643 28 266 0.0 0.0 0.00 0.00 0.05 64 1008.6
20260904213542 28 266 0.0 0.0 0.00 0.00 0.05 64 1008.5
20260904213530 28 266 0.0 0.0 0.00 0.05 0.05 64 1008.5
20260904213441 28 265 0.0 0.0 0.00 0.00 0.05 64 1008.6
20260904213405 28 265 0.0 0.0 0.00 0.00 0.05 65 1008.6
20260904213341 28 265 0.0 0.0 0.00 0.00 0.05 65 1008.6
20260904213241 28 265 0.0 0.0 0.00 0.00 0.05 64 1008.6
20260904213140 28 268 0.0 0.0 0.00 0.00 0.05 64 1008.6
20260904213040 29 268 0.0 0.0 0.00 0.00 0.05 64 1008.6
20260904213030 29 268 0.0 0.0 0.00 0.05 0.05 64 1008.5
20260904212940 29 268 0.0 0.0 0.00 0.00 0.05 63 1008.6
20260904212902 29 268 0.0 0.0 0.00 0.00 0.05 63 1008.6
20260904212839 29 268 0.0 0.0 0.00 0.00 0.05 63 1008.6
20260904212752 29 302 0.0 0.0 0.00 0.00 0.05 63 1008.6
20260904212747 29 268 0.0 0.0 0.00 0.00 0.05 62 1008.6
20260904212604 29 308 0.0 0.0 0.00 0.00 0.05 63 1008.6
20260904212531 29 308 0.0 0.0 0.00 0.05 0.05 63 1008.4
20260904212451 29 308 0.0 0.0 0.00 0.00 0.05 63 1008.5
20260904212442 29 308 0.0 0.0 0.00 0.00 0.05 63 1008.5
20260904212235 29 254 0.0 0.0 0.00 0.00 0.05 63 1008.5
20260904212135 29 254 0.0 0.0 0.00 0.00 0.05 62 1008.6
20260904212035 29 254 0.0 0.0 0.00 0.00 0.05 62 1008.6
20260904212030 29 254 0.0 0.0 0.00 0.05 0.05 62 1008.4
20260904211935 29 252 0.0 0.0 0.00 0.00 0.05 63 1008.5
20260904211900 29 246 0.0 0.0 0.00 0.00 0.05 63 1008.5
20260904211834 29 246 0.0 0.0 0.00 0.00 0.05 62 1008.5
20260904211734 29 245 0.0 0.0 0.00 0.00 0.05 62 1008.4
20260904211634 29 228 0.0 0.0 0.00 0.00 0.05 62 1008.4
20260904211601 29 228 0.0 0.0 0.00 0.00 0.05 62 1008.4
20260904211530 29 228 0.0 0.0 0.00 0.05 0.05 61 1008.3
20260904211448 29 228 0.0 0.0 0.00 0.00 0.05 61 1008.4
20260904211440 29 220 0.0 0.0 0.00 0.00 0.05 61 1008.4
20260904211233 29 271 0.0 0.0 0.00 0.00 0.05 61 1008.4
20260904211132 29 227 0.0 0.0 0.00 0.00 0.05 61 1008.4
20260904211032 29 355 0.0 0.0 0.00 0.00 0.05 62 1008.5
20260904211030 30 355 0.0 0.0 0.00 0.05 0.05 62 1008.5
20260904210932 29 355 0.0 0.0 0.00 0.00 0.05 62 1008.5
20260904210858 29 355 0.0 0.0 0.00 0.00 0.05 61 1008.5
20260904210831 29 355 0.0 0.0 0.00 0.00 0.05 61 1008.5
20260904210731 30 266 0.0 0.0 0.00 0.00 0.05 61 1008.4
20260904210722 30 248 0.0 0.0 0.00 0.00 0.05 61 1008.3
20260904210631 30 267 0.0 0.0 0.00 0.00 0.05 61 1008.4
20260904210622 30 290 0.0 0.0 0.00 0.00 0.05 61 1008.3
20260904210615 30 267 0.0 0.0 0.00 0.00 0.05 61 1008.4
20260904210606 30 236 0.0 0.0 0.00 0.00 0.05 61 1008.3
20260904210530 30 267 0.0 0.0 0.00 0.05 0.05 61 1008.3
20260904210347 30 257 0.0 0.0 0.00 0.00 0.05 62 1008.3
20260904210030 30 260 0.0 0.0 0.00 0.05 0.05 61 1008.3
20260904205927 30 260 0.0 0.0 0.00 0.00 0.05 60 1008.3
20260904205858 30 260 0.0 0.0 0.00 0.00 0.05 60 1008.3
20260904205826 30 260 0.0 0.0 0.00 0.00 0.05 60 1008.3
20260904205725 30 260 0.0 0.0 0.00 0.00 0.05 59 1008.3
20260904205623 30 294 0.0 0.0 0.00 0.00 0.05 59 1008.4
20260904205538 30 266 0.0 0.0 0.00 0.00 0.05 59 1008.4
20260904205532 30 251 0.0 0.0 0.00 0.00 0.05 60 1008.3
20260904205530 30 252 0.0 0.0 0.00 0.05 0.05 60 1008.3
20260904205358 30 266 0.0 0.0 0.00 0.00 0.05 59 1008.3
20260904205345 30 268 0.0 0.0 0.00 0.00 0.05 59 1008.3
20260904205231 30 251 0.0 0.0 0.00 0.00 0.05 60 1008.3
20260904205036 30 288 0.0 0.0 0.00 0.00 0.05 59 1008.3
20260904205031 30 270 0.0 0.0 0.00 0.00 0.05 58 1008.3
20260904204856 30 268 0.0 0.0 0.00 0.00 0.05 59 1008.2
20260904204821 30 266 0.0 0.0 0.00 0.00 0.05 59 1008.2
20260904204753 30 295 0.0 0.0 0.00 0.00 0.05 58 1008.2
20260904204749 30 266 0.0 0.0 0.00 0.00 0.05 59 1008.2
20260904204745 30 289 0.0 0.0 0.00 0.00 0.05 60 1008.1
20260904204739 30 265 0.0 0.0 0.00 0.00 0.05 59 1008.3
20260904204530 30 265 0.0 0.0 0.00 0.05 0.05 59 1008.1
20260904204503 30 292 0.0 0.0 0.00 0.00 0.05 60 1008.1
20260904204333 30 319 0.0 0.0 0.00 0.00 0.05 58 1008.1
20260904204328 30 317 0.0 0.0 0.00 0.00 0.05 61 1008.1
20260904204119 30 320 0.0 0.0 0.00 0.00 0.05 59 1008.1
20260904204045 30 320 0.0 0.0 0.00 0.05 0.05 59 1008.2
20260904204018 30 320 0.0 0.0 0.00 0.00 0.05 59 1008.2
20260904203917 30 320 0.0 0.0 0.00 0.00 0.05 58 1008.2
20260904203856 30 320 0.0 0.0 0.00 0.00 0.05 58 1008.2
20260904203817 30 320 0.0 0.0 0.00 0.00 0.05 57 1008.2
20260904203716 30 320 0.0 0.0 0.00 0.00 0.05 57 1008.2
20260904203616 30 311 0.0 0.0 0.00 0.00 0.05 57 1008.1
20260904203545 30 311 0.0 0.0 0.00 0.05 0.05 58 1008.1
20260904203516 30 311 0.0 0.0 0.00 0.00 0.05 58 1008.1
20260904203443 30 329 0.0 0.0 0.00 0.00 0.05 59 1008.1
20260904203436 30 233 0.0 0.0 0.00 0.00 0.05 59 1008.0
20260904203324 30 295 0.0 0.0 0.00 0.00 0.05 59 1008.0
20260904203115 30 270 0.0 0.0 0.00 0.00 0.05 58 1008.0
20260904203030 30 270 0.0 0.0 0.00 0.05 0.05 59 1008.0
20260904203014 30 270 0.0 0.0 0.00 0.00 0.05 58 1008.0
20260904202914 30 269 0.0 0.0 0.00 0.00 0.05 59 1008.0
20260904202828 30 269 0.0 0.0 0.00 0.00 0.05 58 1008.2
20260904202822 30 269 0.0 0.0 0.00 0.00 0.05 59 1008.1
20260904202613 30 269 0.0 0.0 0.00 0.00 0.05 58 1008.2
20260904202530 30 269 0.0 0.0 0.00 0.05 0.05 57 1008.2
20260904202512 30 268 0.0 0.0 0.00 0.00 0.05 57 1008.3
20260904202412 30 278 0.0 0.0 0.00 0.00 0.05 58 1008.2
20260904202351 30 278 0.0 0.0 0.00 0.00 0.05 58 1008.2
20260904202313 30 277 0.0 0.0 0.00 0.00 0.05 57 1008.2
20260904202225 30 296 0.0 0.0 0.00 0.00 0.05 58 1008.3
20260904202220 30 279 0.0 0.0 0.00 0.00 0.05 58 1008.2
20260904202030 30 284 0.0 0.0 0.00 0.05 0.05 59 1008.3
20260904202010 30 284 0.0 0.0 0.00 0.00 0.05 59 1008.3
20260904201910 30 285 0.0 0.0 0.00 0.00 0.05 57 1008.3
20260904201850 30 285 0.0 0.0 0.00 0.00 0.05 58 1008.3
20260904201810 30 321 0.0 0.0 0.00 0.00 0.05 59 1008.3
20260904201709 30 267 0.0 0.0 0.00 0.00 0.05 59 1008.3
20260904201610 30 263 0.0 0.0 0.00 0.00 0.05 60 1008.3
20260904201545 30 292 0.0 0.0 0.00 0.05 0.05 61 1008.3
20260904201508 30 292 0.0 0.0 0.00 0.00 0.05 61 1008.3
20260904201408 30 292 0.0 0.0 0.00 0.00 0.05 61 1008.3
20260904201348 30 292 0.0 0.0 0.00 0.00 0.05 61 1008.3
20260904201308 30 292 0.0 0.0 0.00 0.00 0.05 62 1008.3
20260904201207 30 292 0.0 0.0 0.00 0.00 0.05 62 1008.3
20260904201106 30 292 0.0 0.0 0.00 0.00 0.05 60 1008.4
20260904201045 30 292 0.0 0.0 0.00 0.05 0.05 61 1008.4
20260904201005 30 292 0.0 0.0 0.00 0.00 0.05 61 1008.4
20260904200905 30 292 0.0 0.0 0.00 0.00 0.05 60 1008.5
20260904200849 30 292 0.0 0.0 0.00 0.00 0.05 61 1008.5
20260904200804 30 292 0.0 0.0 0.00 0.00 0.05 61 1008.5
20260904200706 30 292 0.0 0.0 0.00 0.00 0.05 60 1008.5
20260904200659 30 309 0.0 0.0 0.00 0.00 0.05 59 1008.5
20260904200655 30 271 0.0 0.0 0.00 0.00 0.05 60 1008.6
20260904200651 30 240 0.0 0.0 0.00 0.00 0.05 60 1008.6
20260904200644 30 295 0.0 0.0 0.00 0.00 0.05 59 1008.5
20260904200635 30 296 0.0 0.0 0.00 0.00 0.05 59 1008.6
20260904200530 30 296 0.0 0.0 0.00 0.05 0.05 59 1008.6
20260904200118 30 291 0.0 0.0 0.00 0.00 0.05 59 1008.6
20260904200113 30 246 0.0 0.0 0.00 0.00 0.05 58 1008.7
20260904200032 30 278 0.0 0.0 0.00 0.05 0.05 59 1008.6
20260904195844 30 261 0.0 0.0 0.00 0.00 0.05 60 1008.6
20260904195759 30 264 0.0 0.0 0.00 0.00 0.05 60 1008.6
20260904195659 30 305 0.0 0.0 0.00 0.00 0.05 60 1008.5
20260904195652 30 266 0.0 0.0 0.00 0.00 0.05 60 1008.5
20260904195645 30 265 0.0 0.0 0.00 0.00 0.05 61 1008.6
20260904195530 30 265 0.0 0.0 0.00 0.05 0.05 60 1008.5
20260904195424 30 261 0.0 0.0 0.00 0.00 0.05 60 1008.6
20260904195419 30 266 0.0 0.0 0.00 0.00 0.05 59 1008.6
20260904195412 30 266 0.0 0.0 0.00 0.00 0.05 59 1008.6
20260904195054 30 261 0.0 0.0 0.00 0.00 0.05 61 1008.6
20260904195030 30 261 0.0 0.0 0.00 0.05 0.05 61 1008.6
20260904194953 30 261 0.0 0.0 0.00 0.00 0.05 60 1008.6
20260904194853 30 261 0.0 0.0 0.00 0.00 0.05 60 1008.6
20260904194840 30 261 0.0 0.0 0.00 0.00 0.05 60 1008.6
20260904194752 30 261 0.0 0.0 0.00 0.00 0.05 59 1008.7
20260904194652 30 264 0.0 0.0 0.00 0.00 0.05 60 1008.7
20260904194605 30 282 0.0 0.0 0.00 0.00 0.05 61 1008.7
20260904194600 30 273 0.0 0.0 0.00 0.00 0.05 60 1008.8
20260904194530 30 282 0.0 0.0 0.00 0.05 0.05 60 1008.7
20260904194418 30 282 0.0 0.0 0.00 0.00 0.05 61 1008.7
20260904194412 30 283 0.0 0.0 0.00 0.00 0.05 61 1008.7
20260904194256 30 283 0.0 0.0 0.00 0.00 0.05 58 1008.8
20260904194251 30 283 0.0 0.0 0.00 0.00 0.05 60 1008.8
20260904194242 30 283 0.0 0.0 0.00 0.00 0.05 59 1008.8
20260904194124 30 285 0.0 0.0 0.00 0.00 0.05 58 1008.8
20260904194030 30 285 0.0 0.0 0.00 0.05 0.05 59 1008.8
20260904193756 30 298 0.0 0.0 0.00 0.00 0.05 57 1008.8
20260904193559 30 306 0.0 0.0 0.00 0.00 0.05 59 1008.9
20260904193546 30 323 0.0 0.0 0.00 0.00 0.05 59 1008.9
20260904193530 31 325 0.0 0.0 0.00 0.05 0.05 59 1008.9
20260904193456 30 325 0.0 0.0 0.00 0.00 0.05 59 1008.9
20260904193446 30 306 0.0 0.0 0.00 0.00 0.05 59 1008.9
20260904193301 30 307 0.0 0.0 0.00 0.00 0.05 58 1009.0
20260904193256 30 306 0.0 0.0 0.00 0.00 0.05 59 1009.0
20260904193132 31 314 0.0 0.0 0.00 0.00 0.05 59 1009.1
20260904193128 31 315 0.0 0.0 0.00 0.00 0.05 58 1009.1
20260904193124 31 294 0.0 0.0 0.00 0.00 0.05 60 1009.1
20260904193117 30 309 0.0 0.0 0.00 0.00 0.05 58 1009.1
20260904193108 31 283 0.0 0.0 0.00 0.00 0.05 58 1009.1
20260904193031 31 288 0.0 0.0 0.00 0.05 0.05 58 1009.1
20260904192644 30 262 0.0 0.0 0.00 0.00 0.05 59 1009.1
20260904192544 30 261 0.0 0.0 0.00 0.00 0.05 59 1009.0
20260904192530 31 302 0.0 0.0 0.00 0.05 0.05 57 1009.0
20260904192517 30 316 0.0 0.0 0.00 0.00 0.05 58 1009.0
20260904192511 30 321 0.0 0.0 0.00 0.00 0.05 59 1009.0
20260904192506 30 302 0.0 0.0 0.00 0.00 0.05 57 1009.0
20260904192350 30 316 0.0 0.0 0.00 0.00 0.05 58 1009.0
20260904192156 30 316 0.0 0.0 0.00 0.00 0.05 59 1009.0
20260904192150 30 253 0.0 0.0 0.00 0.00 0.05 59 1009.0
20260904192030 31 300 0.0 0.0 0.00 0.05 0.05 59 1009.1
20260904191959 30 303 0.0 0.0 0.00 0.00 0.05 58 1009.1
20260904191954 30 301 0.0 0.0 0.00 0.00 0.05 59 1009.1
20260904191838 30 303 0.0 0.0 0.00 0.00 0.05 58 1009.1
20260904191740 30 303 0.0 0.0 0.00 0.00 0.05 58 1009.1
20260904191640 30 321 0.0 0.0 0.00 0.00 0.05 57 1009.0
20260904191607 31 267 0.0 0.0 0.00 0.00 0.05 57 1009.0
20260904191530 31 267 0.0 0.0 0.00 0.05 0.05 57 1009.0
20260904191454 31 326 0.0 0.0 0.00 0.00 0.05 57 1009.0
20260904191400 31 0 0.0 0.0 0.00 0.05 0.05 59 1009.1
20260904191342 31 260 0.0 0.0 0.00 0.00 0.05 59 1008.3
20260904191332 31 0 0.0 0.0 0.00 0.05 0.05 60 1009.3
20260904191301 30 0 0.0 0.0 0.00 0.05 0.05 62 1005.0
20260904191157 31 260 0.0 0.0 0.00 0.00 0.05 58 1008.3
20260904191056 30 271 0.0 0.0 0.00 0.00 0.05 58 1008.3
20260904190953 30 284 0.0 0.0 0.00 0.00 0.05 58 1008.3
20260904190853 30 271 0.0 0.0 0.00 0.00 0.05 57 1008.3
20260904190817 30 271 0.0 0.0 0.00 0.00 0.05 57 1008.3
20260904190754 30 271 0.0 0.0 0.00 0.00 0.05 58 1008.3
20260904190653 30 254 0.0 0.0 0.00 0.00 0.05 57 1008.4
20260904190551 30 320 0.0 0.0 0.00 0.00 0.05 59 1008.4
20260904190452 30 259 0.0 0.0 0.00 0.00 0.05 59 1008.4
20260904190347 31 323 0.0 0.0 0.00 0.00 0.05 61 1008.4
20260904190312 31 321 0.0 0.0 0.00 0.00 0.05 61 1008.4
20260904190247 31 323 0.0 0.0 0.00 0.00 0.05 62 1008.4
20260904190158 31 323 0.0 0.0 0.00 0.00 0.05 59 1008.5
20260904190154 31 323 0.0 0.0 0.00 0.00 0.05 59 1008.4
20260904185945 31 257 0.0 0.0 0.00 0.00 0.05 59 1008.5
20260904185845 31 220 0.0 0.0 0.00 0.00 0.05 59 1008.5
20260904185812 31 252 0.0 0.0 0.00 0.00 0.05 59 1008.5
20260904185745 31 289 0.0 0.0 0.00 0.00 0.05 58 1008.6
20260904185645 31 0 0.0 0.0 0.00 0.00 0.05 60 1008.6
20260904185629 31 288 0.0 0.0 0.00 0.00 0.05 58 1008.6
20260904185622 31 292 0.0 0.0 0.00 0.00 0.05 59 1008.6
20260904185509 31 9 0.0 0.0 0.00 0.00 0.05 60 1008.6
20260904185500 31 246 0.0 0.0 0.00 0.00 0.05 58 1008.6
20260904185141 30 327 0.0 0.0 0.00 0.00 0.05 60 1008.7
20260904185041 30 235 0.0 0.0 0.00 0.00 0.05 60 1008.7
20260904184941 30 271 0.0 0.0 0.00 0.00 0.05 61 1008.7
20260904184842 30 264 0.0 0.0 0.00 0.00 0.05 61 1008.7
20260904184812 30 264 0.0 0.0 0.00 0.00 0.05 62 1008.7
20260904184748 30 249 0.0 0.0 0.00 0.00 0.05 64 1008.7
20260904184744 30 250 0.0 0.0 0.00 0.00 0.05 62 1008.7
20260904184534 30 292 0.0 0.0 0.00 0.00 0.05 64 1008.7
20260904184434 30 292 0.0 0.0 0.00 0.00 0.05 64 1008.7
20260904184352 30 305 0.0 0.0 0.00 0.00 0.05 63 1008.7
20260904184348 30 304 0.0 0.0 0.00 0.00 0.05 64 1008.7
20260904184340 30 304 0.0 0.0 0.00 0.00 0.05 65 1008.7
20260904184133 30 305 0.0 0.0 0.00 0.00 0.05 64 1008.7
20260904184033 30 305 0.0 0.0 0.00 0.00 0.05 63 1008.7
20260904183929 30 306 0.0 0.0 0.00 0.00 0.05 63 1008.7
20260904183812 30 303 0.0 0.0 0.00 0.00 0.05 62 1008.7
20260904183729 30 304 0.0 0.0 0.00 0.00 0.05 62 1008.7
20260904183629 30 303 0.0 0.0 0.00 0.00 0.05 63 1008.7
20260904183544 30 304 0.0 0.0 0.00 0.00 0.05 63 1008.7
20260904183538 30 304 0.0 0.0 0.00 0.00 0.05 62 1008.7
20260904183329 30 313 0.0 0.0 0.00 0.00 0.05 62 1008.7
20260904183312 30 305 0.0 0.0 0.00 0.00 0.05 62 1008.7
20260904183230 30 306 0.0 0.0 0.00 0.00 0.05 63 1008.7
20260904183131 30 308 0.0 0.0 0.00 0.00 0.05 63 1008.8
20260904183042 30 262 0.0 0.0 0.00 0.00 0.05 63 1008.7
20260904183038 30 309 0.0 0.0 0.00 0.00 0.05 62 1008.7
20260904182812 30 261 0.0 0.0 0.00 0.00 0.05 62 1008.7
20260904182730 30 261 0.0 0.0 0.00 0.00 0.05 62 1008.7
20260904182629 30 261 0.0 0.0 0.00 0.00 0.05 63 1008.8
20260904182529 30 260 0.0 0.0 0.00 0.00 0.05 63 1008.8
20260904182429 30 261 0.0 0.0 0.00 0.00 0.05 63 1008.8
20260904182329 30 264 0.0 0.0 0.00 0.00 0.05 61 1008.8
20260904182229 30 269 0.0 0.0 0.00 0.00 0.05 61 1008.9
20260904182129 30 302 0.0 0.0 0.00 0.00 0.05 60 1008.9
20260904182039 30 263 0.0 0.0 0.00 0.00 0.05 59 1008.8
20260904182034 30 265 0.0 0.0 0.00 0.00 0.05 61 1008.8
20260904181825 30 263 0.0 0.0 0.00 0.00 0.05 60 1008.9
20260904181811 30 262 0.0 0.0 0.00 0.00 0.05 60 1008.9
20260904181739 30 261 0.0 0.0 0.00 0.00 0.05 60 1008.9
20260904181734 30 262 0.0 0.0 0.00 0.00 0.05 60 1008.8
20260904181525 30 263 0.0 0.0 0.00 0.00 0.05 60 1008.8
20260904181425 30 261 0.0 0.0 0.00 0.00 0.05 60 1008.8
20260904181312 30 269 0.0 0.0 0.00 0.00 0.05 59 1008.8
20260904181225 30 269 0.0 0.0 0.00 0.00 0.05 60 1008.8
20260904181126 30 269 0.0 0.0 0.00 0.00 0.05 61 1008.7
20260904181025 30 240 0.0 0.0 0.00 0.00 0.05 60 1008.8
20260904180925 30 175 0.0 0.0 0.00 0.00 0.05 61 1008.8
20260904180845 30 257 0.0 0.0 0.00 0.00 0.05 60 1008.7
20260904180840 30 259 0.0 0.0 0.00 0.00 0.05 60 1008.7
20260904180832 30 257 0.0 0.0 0.00 0.00 0.05 60 1008.7
20260904180625 30 258 0.0 0.0 0.00 0.00 0.05 61 1008.7
20260904180525 30 250 0.0 0.0 0.00 0.00 0.05 59 1008.8
20260904180439 30 225 0.0 0.0 0.00 0.00 0.05 63 1008.8
20260904180434 30 273 0.0 0.0 0.00 0.00 0.05 61 1008.8
20260904180312 30 225 0.0 0.0 0.00 0.00 0.05 62 1008.8
20260904180226 30 225 0.0 0.0 0.00 0.00 0.05 62 1008.9
20260904180121 30 225 0.0 0.0 0.00 0.00 0.05 64 1008.9
20260904180021 30 277 0.0 0.0 0.00 0.00 0.05 62 1008.9
20260904175921 30 278 0.0 0.0 0.00 0.00 0.05 61 1008.8
20260904175811 30 289 0.0 0.0 0.00 0.00 0.05 60 1008.8
20260904175721 30 268 0.0 0.0 0.00 0.00 0.05 61 1008.9
20260904175621 30 268 0.0 0.0 0.00 0.00 0.05 61 1008.9
20260904175521 30 299 0.0 0.0 0.00 0.00 0.05 62 1009.0
20260904175421 30 287 0.0 0.0 0.00 0.00 0.05 60 1008.9